Wetterdaten: Freitag, 28.10.2022
Datum Zeit Temp. 2m Temp +5 cm Feuchte A. Luftdruck Regen Wind Richtung Richtung Sonnenschein UV Solar Taupunkt Windchill Windben
28.10.2022 00:00 15,7 C 14,4 C 86 % 1023,5 hPa 0,0 l/m 10,1 km/h (2 Bft) S 169 0 min 0,0 UV-I 0 W/m 13,4 C 13,8 C 20,9 km/h (4 Bft)
28.10.2022 00:03 15,6 C 14,4 C 86 % 1023,5 hPa 0,0 l/m 9,4 km/h (2 Bft) SO 144 0 min 0,0 UV-I 0 W/m 13,3 C 14,1 C 16,1 km/h (3 Bft)
28.10.2022 00:06 15,6 C 14,4 C 86 % 1023,5 hPa 0,0 l/m 12,0 km/h (2 Bft) S-SO 154 0 min 0,0 UV-I 0 W/m 13,3 C 13,0 C 20,9 km/h (4 Bft)
28.10.2022 00:09 15,6 C 14,4 C 86 % 1023,5 hPa 0,0 l/m 9,5 km/h (2 Bft) SO 140 0 min 0,0 UV-I 0 W/m 13,3 C 14,0 C 12,9 km/h (3 Bft)
28.10.2022 00:12 15,5 C 14,4 C 86 % 1023,6 hPa 0,0 l/m 8,9 km/h (2 Bft) SO 142 0 min 0,0 UV-I 0 W/m 13,2 C 14,2 C 14,5 km/h (3 Bft)
28.10.2022 00:15 15,5 C 14,4 C 86 % 1023,5 hPa 0,0 l/m 8,9 km/h (2 Bft) SO 146 0 min 0,0 UV-I 0 W/m 13,2 C 14,2 C 14,5 km/h (3 Bft)
28.10.2022 00:18 15,4 C 14,4 C 86 % 1023,4 hPa 0,0 l/m 9,8 km/h (2 Bft) SO 138 0 min 0,0 UV-I 0 W/m 13,1 C 13,6 C 16,1 km/h (3 Bft)
28.10.2022 00:21 15,4 C 14,4 C 87 % 1023,4 hPa 0,0 l/m 11,7 km/h (2 Bft) S-SO 149 0 min 0,0 UV-I 0 W/m 13,2 C 12,8 C 19,3 km/h (3 Bft)
28.10.2022 00:24 15,5 C 14,4 C 86 % 1023,4 hPa 0,0 l/m 10,8 km/h (2 Bft) S 178 0 min 0,0 UV-I 0 W/m 13,2 C 13,3 C 17,7 km/h (3 Bft)
28.10.2022 00:27 15,4 C 14,4 C 86 % 1023,4 hPa 0,0 l/m 8,3 km/h (2 Bft) S-SO 163 0 min 0,0 UV-I 0 W/m 13,1 C 14,4 C 14,5 km/h (3 Bft)
28.10.2022 00:30 15,5 C 14,4 C 87 % 1023,5 hPa 0,0 l/m 12,7 km/h (3 Bft) SO 135 0 min 0,0 UV-I 0 W/m 13,3 C 12,6 C 19,3 km/h (3 Bft)
28.10.2022 00:33 15,5 C 14,4 C 86 % 1023,6 hPa 0,0 l/m 7,6 km/h (2 Bft) S 175 0 min 0,0 UV-I 0 W/m 13,2 C 14,8 C 12,9 km/h (3 Bft)
28.10.2022 00:36 15,6 C 14,4 C 86 % 1023,5 hPa 0,0 l/m 11,5 km/h (2 Bft) S-SW 192 0 min 0,0 UV-I 0 W/m 13,3 C 13,2 C 22,5 km/h (4 Bft)
28.10.2022 00:39 15,6 C 14,4 C 86 % 1023,5 hPa 0,0 l/m 8,7 km/h (2 Bft) S 187 0 min 0,0 UV-I 0 W/m 13,3 C 14,4 C 17,7 km/h (3 Bft)
28.10.2022 00:42 15,6 C 14,4 C 85 % 1023,5 hPa 0,0 l/m 8,6 km/h (2 Bft) S-SO 150 0 min 0,0 UV-I 0 W/m 13,1 C 14,4 C 16,1 km/h (3 Bft)
28.10.2022 00:45 15,7 C 14,4 C 85 % 1023,5 hPa 0,0 l/m 10,8 km/h (2 Bft) S-SO 157 0 min 0,0 UV-I 0 W/m 13,2 C 13,6 C 19,3 km/h (3 Bft)
28.10.2022 00:48 15,8 C 15,0 C 85 % 1023,5 hPa 0,0 l/m 11,9 km/h (2 Bft) S 173 0 min 0,0 UV-I 0 W/m 13,3 C 13,2 C 20,9 km/h (4 Bft)
28.10.2022 00:51 15,8 C 14,4 C 85 % 1023,5 hPa 0,0 l/m 8,5 km/h (2 Bft) S-SO 159 0 min 0,0 UV-I 0 W/m 13,3 C 14,7 C 11,3 km/h (2 Bft)
28.10.2022 00:54 15,7 C 14,4 C 85 % 1023,5 hPa 0,0 l/m 7,5 km/h (2 Bft) S-SO 156 0 min 0,0 UV-I 0 W/m 13,2 C 15,1 C 11,3 km/h (2 Bft)
28.10.2022 00:57 15,7 C 14,4 C 85 % 1023,4 hPa 0,0 l/m 9,3 km/h (2 Bft) SO 139 0 min 0,0 UV-I 0 W/m 13,2 C 14,2 C 12,9 km/h (3 Bft)
28.10.2022 01:00 15,7 C 14,4 C 85 % 1023,4 hPa 0,0 l/m 9,8 km/h (2 Bft) SO 126 0 min 0,0 UV-I 0 W/m 13,2 C 14,0 C 16,1 km/h (3 Bft)
28.10.2022 01:03 15,8 C 14,4 C 85 % 1023,4 hPa 0,0 l/m 14,6 km/h (3 Bft) SO 130 0 min 0,0 UV-I 0 W/m 13,3 C 12,3 C 22,5 km/h (4 Bft)
28.10.2022 01:06 15,9 C 15,0 C 84 % 1023,3 hPa 0,0 l/m 12,9 km/h (3 Bft) S-SO 150 0 min 0,0 UV-I 0 W/m 13,2 C 13,0 C 17,7 km/h (3 Bft)
28.10.2022 01:09 15,9 C 15,0 C 84 % 1023,2 hPa 0,0 l/m 11,1 km/h (2 Bft) S-SO 152 0 min 0,0 UV-I 0 W/m 13,2 C 13,7 C 17,7 km/h (3 Bft)
28.10.2022 01:12 15,8 C 14,4 C 84 % 1023,1 hPa 0,0 l/m 8,9 km/h (2 Bft) S-SO 155 0 min 0,0 UV-I 0 W/m 13,1 C 14,5 C 16,1 km/h (3 Bft)
28.10.2022 01:15 15,8 C 15,0 C 85 % 1023,1 hPa 0,0 l/m 11,6 km/h (2 Bft) S-SO 163 0 min 0,0 UV-I 0 W/m 13,3 C 13,3 C 17,7 km/h (3 Bft)
28.10.2022 01:18 15,9 C 15,0 C 84 % 1023,0 hPa 0,0 l/m 11,4 km/h (2 Bft) SO 132 0 min 0,0 UV-I 0 W/m 13,2 C 13,5 C 17,7 km/h (3 Bft)
28.10.2022 01:21 15,9 C 15,0 C 85 % 1023,1 hPa 0,0 l/m 12,4 km/h (3 Bft) SO 134 0 min 0,0 UV-I 0 W/m 13,4 C 13,2 C 20,9 km/h (4 Bft)
28.10.2022 01:24 15,9 C 15,0 C 84 % 1023,2 hPa 0,0 l/m 8,6 km/h (2 Bft) S-SO 168 0 min 0,0 UV-I 0 W/m 13,2 C 14,8 C 16,1 km/h (3 Bft)
28.10.2022 01:27 15,8 C 15,0 C 84 % 1023,0 hPa 0,0 l/m 11,0 km/h (2 Bft) S-SO 159 0 min 0,0 UV-I 0 W/m 13,1 C 13,6 C 16,1 km/h (3 Bft)
28.10.2022 01:30 15,8 C 14,4 C 85 % 1022,9 hPa 0,0 l/m 10,3 km/h (2 Bft) S-SO 160 0 min 0,0 UV-I 0 W/m 13,3 C 13,9 C 16,1 km/h (3 Bft)
28.10.2022 01:33 15,8 C 15,0 C 85 % 1022,9 hPa 0,0 l/m 10,4 km/h (2 Bft) S 178 0 min 0,0 UV-I 0 W/m 13,3 C 13,8 C 19,3 km/h (3 Bft)
28.10.2022 01:36 15,8 C 15,0 C 85 % 1022,8 hPa 0,0 l/m 10,5 km/h (2 Bft) S-SO 154 0 min 0,0 UV-I 0 W/m 13,3 C 13,8 C 17,7 km/h (3 Bft)
28.10.2022 01:39 15,8 C 14,4 C 84 % 1022,9 hPa 0,0 l/m 10,1 km/h (2 Bft) S 179 0 min 0,0 UV-I 0 W/m 13,1 C 14,0 C 17,7 km/h (3 Bft)
28.10.2022 01:42 15,8 C 15,0 C 85 % 1022,8 hPa 0,0 l/m 12,0 km/h (2 Bft) S-SO 154 0 min 0,0 UV-I 0 W/m 13,3 C 13,2 C 17,7 km/h (3 Bft)
28.10.2022 01:45 15,8 C 15,0 C 84 % 1022,7 hPa 0,0 l/m 14,3 km/h (3 Bft) S-SW 207 0 min 0,0 UV-I 0 W/m 13,1 C 12,4 C 20,9 km/h (4 Bft)
28.10.2022 01:48 15,9 C 15,0 C 84 % 1022,6 hPa 0,0 l/m 12,2 km/h (2 Bft) S 175 0 min 0,0 UV-I 0 W/m 13,2 C 13,2 C 17,7 km/h (3 Bft)
28.10.2022 01:51 15,9 C 15,0 C 84 % 1022,7 hPa 0,0 l/m 10,3 km/h (2 Bft) S 178 0 min 0,0 UV-I 0 W/m 13,2 C 14,0 C 17,7 km/h (3 Bft)
28.10.2022 01:54 15,9 C 15,0 C 84 % 1022,6 hPa 0,0 l/m 13,1 km/h (3 Bft) S-SO 165 0 min 0,0 UV-I 0 W/m 13,2 C 12,9 C 20,9 km/h (4 Bft)
28.10.2022 01:57 15,9 C 15,0 C 84 % 1022,7 hPa 0,0 l/m 9,3 km/h (2 Bft) SO 140 0 min 0,0 UV-I 0 W/m 13,2 C 14,4 C 16,1 km/h (3 Bft)
28.10.2022 02:00 15,9 C 15,0 C 84 % 1022,8 hPa 0,0 l/m 13,4 km/h (3 Bft) S-SO 163 0 min 0,0 UV-I 0 W/m 13,2 C 12,8 C 19,3 km/h (3 Bft)
28.10.2022 02:03 16,0 C 15,0 C 84 % 1022,7 hPa 0,0 l/m 16,8 km/h (3 Bft) SO 144 0 min 0,0 UV-I 0 W/m 13,3 C 11,9 C 25,7 km/h (4 Bft)
28.10.2022 02:06 16,2 C 15,6 C 83 % 1022,7 hPa 0,0 l/m 16,8 km/h (3 Bft) SO 124 0 min 0,0 UV-I 0 W/m 13,3 C 12,1 C 25,7 km/h (4 Bft)
28.10.2022 02:09 16,2 C 15,0 C 83 % 1022,7 hPa 0,0 l/m 15,7 km/h (3 Bft) S 174 0 min 0,0 UV-I 0 W/m 13,3 C 12,4 C 22,5 km/h (4 Bft)
28.10.2022 02:12 16,2 C 15,0 C 83 % 1022,8 hPa 0,0 l/m 17,3 km/h (3 Bft) S 180 0 min 0,0 UV-I 0 W/m 13,3 C 12,0 C 32,2 km/h (5 Bft)
28.10.2022 02:15 16,2 C 15,0 C 83 % 1022,7 hPa 0,0 l/m 14,1 km/h (3 Bft) S-SW 198 0 min 0,0 UV-I 0 W/m 13,3 C 12,9 C 24,1 km/h (4 Bft)
28.10.2022 02:18 16,2 C 15,0 C 83 % 1022,7 hPa 0,0 l/m 14,0 km/h (3 Bft) S 189 0 min 0,0 UV-I 0 W/m 13,3 C 13,0 C 22,5 km/h (4 Bft)
28.10.2022 02:21 16,1 C 15,0 C 83 % 1022,6 hPa 0,0 l/m 12,4 km/h (3 Bft) S 171 0 min 0,0 UV-I 0 W/m 13,2 C 13,4 C 22,5 km/h (4 Bft)
28.10.2022 02:24 16,0 C 15,0 C 84 % 1022,6 hPa 0,0 l/m 10,5 km/h (2 Bft) SO 131 0 min 0,0 UV-I 0 W/m 13,3 C 14,0 C 17,7 km/h (3 Bft)
28.10.2022 02:27 15,9 C 15,0 C 84 % 1022,5 hPa 0,0 l/m 9,7 km/h (2 Bft) S-SO 151 0 min 0,0 UV-I 0 W/m 13,2 C 14,2 C 16,1 km/h (3 Bft)
28.10.2022 02:30 15,9 C 15,0 C 84 % 1022,5 hPa 0,0 l/m 9,0 km/h (2 Bft) S-SO 163 0 min 0,0 UV-I 0 W/m 13,2 C 14,6 C 14,5 km/h (3 Bft)
28.10.2022 02:33 15,9 C 15,0 C 84 % 1022,5 hPa 0,0 l/m 6,8 km/h (2 Bft) S 190 0 min 0,0 UV-I 0 W/m 13,2 C 15,7 C 11,3 km/h (2 Bft)
28.10.2022 02:36 15,8 C 14,4 C 84 % 1022,4 hPa 0,0 l/m 9,2 km/h (2 Bft) SW 214 0 min 0,0 UV-I 0 W/m 13,1 C 14,4 C 17,7 km/h (3 Bft)
28.10.2022 02:39 15,8 C 15,0 C 84 % 1022,5 hPa 0,0 l/m 13,0 km/h (3 Bft) S-SO 164 0 min 0,0 UV-I 0 W/m 13,1 C 12,8 C 24,1 km/h (4 Bft)
28.10.2022 02:42 15,9 C 15,0 C 84 % 1022,5 hPa 0,0 l/m 11,8 km/h (2 Bft) S-SW 209 0 min 0,0 UV-I 0 W/m 13,2 C 13,4 C 20,9 km/h (4 Bft)
28.10.2022 02:45 15,9 C 15,0 C 84 % 1022,5 hPa 0,0 l/m 10,3 km/h (2 Bft) S 188 0 min 0,0 UV-I 0 W/m 13,2 C 14,0 C 17,7 km/h (3 Bft)
28.10.2022 02:48 16,0 C 15,0 C 84 % 1022,6 hPa 0,0 l/m 6,8 km/h (2 Bft) S-SO 167 0 min 0,0 UV-I 0 W/m 13,3 C 15,8 C 11,3 km/h (2 Bft)
28.10.2022 02:51 15,9 C 15,0 C 84 % 1022,5 hPa 0,0 l/m 5,6 km/h (1 Bft) S 188 0 min 0,0 UV-I 0 W/m 13,2 C 15,9 C 12,9 km/h (3 Bft)
28.10.2022 02:54 15,8 C 14,4 C 84 % 1022,5 hPa 0,0 l/m 3,7 km/h (1 Bft) S-SW 212 0 min 0,0 UV-I 0 W/m 13,1 C 15,8 C 6,4 km/h (2 Bft)
28.10.2022 02:57 15,7 C 13,9 C 84 % 1022,5 hPa 0,0 l/m 4,7 km/h (1 Bft) S-SW 209 0 min 0,0 UV-I 0 W/m 13,0 C 15,7 C 8,0 km/h (2 Bft)
28.10.2022 03:00 15,5 C 13,9 C 85 % 1022,3 hPa 0,0 l/m 2,6 km/h (1 Bft) S-SW 209 0 min 0,0 UV-I 0 W/m 13,0 C 15,5 C 4,8 km/h (1 Bft)
28.10.2022 03:03 15,3 C 13,3 C 85 % 1022,4 hPa 0,0 l/m 2,3 km/h (1 Bft) S-SW 209 0 min 0,0 UV-I 0 W/m 12,8 C 15,3 C 3,2 km/h (1 Bft)
28.10.2022 03:06 15,3 C 13,3 C 85 % 1022,5 hPa 0,0 l/m 2,4 km/h (1 Bft) S-SW 192 0 min 0,0 UV-I 0 W/m 12,8 C 15,3 C 8,0 km/h (2 Bft)
28.10.2022 03:09 15,6 C 13,9 C 85 % 1022,3 hPa 0,0 l/m 8,5 km/h (2 Bft) SO 144 0 min 0,0 UV-I 0 W/m 13,1 C 14,5 C 19,3 km/h (3 Bft)
28.10.2022 03:12 15,8 C 14,4 C 84 % 1022,4 hPa 0,0 l/m 11,0 km/h (2 Bft) S 171 0 min 0,0 UV-I 0 W/m 13,1 C 13,6 C 19,3 km/h (3 Bft)
28.10.2022 03:15 15,9 C 14,4 C 83 % 1022,4 hPa 0,0 l/m 7,1 km/h (2 Bft) S 171 0 min 0,0 UV-I 0 W/m 13,0 C 15,5 C 11,3 km/h (2 Bft)
28.10.2022 03:18 15,9 C 13,9 C 83 % 1022,4 hPa 0,0 l/m 3,3 km/h (1 Bft) S 191 0 min 0,0 UV-I 0 W/m 13,0 C 15,9 C 8,0 km/h (2 Bft)
28.10.2022 03:21 15,8 C 13,9 C 84 % 1022,3 hPa 0,0 l/m 3,0 km/h (1 Bft) S 191 0 min 0,0 UV-I 0 W/m 13,1 C 15,8 C 6,4 km/h (2 Bft)
28.10.2022 03:24 15,7 C 13,9 C 83 % 1022,2 hPa 0,0 l/m 3,9 km/h (1 Bft) S-SW 193 0 min 0,0 UV-I 0 W/m 12,8 C 15,7 C 6,4 km/h (2 Bft)
28.10.2022 03:27 15,6 C 13,3 C 84 % 1022,2 hPa 0,0 l/m 3,8 km/h (1 Bft) S-SW 193 0 min 0,0 UV-I 0 W/m 12,9 C 15,6 C 6,4 km/h (2 Bft)
28.10.2022 03:30 15,4 C 13,3 C 84 % 1022,2 hPa 0,0 l/m 5,9 km/h (2 Bft) S 179 0 min 0,0 UV-I 0 W/m 12,7 C 15,4 C 9,7 km/h (2 Bft)
28.10.2022 03:33 15,3 C 13,3 C 84 % 1022,2 hPa 0,0 l/m 6,2 km/h (2 Bft) S-SW 196 0 min 0,0 UV-I 0 W/m 12,6 C 15,3 C 9,7 km/h (2 Bft)
28.10.2022 03:36 15,2 C 13,3 C 85 % 1022,4 hPa 0,0 l/m 8,2 km/h (2 Bft) S-SW 205 0 min 0,0 UV-I 0 W/m 12,7 C 14,2 C 14,5 km/h (3 Bft)
28.10.2022 03:39 15,4 C 13,9 C 85 % 1022,1 hPa 0,0 l/m 9,6 km/h (2 Bft) S 180 0 min 0,0 UV-I 0 W/m 12,9 C 13,7 C 20,9 km/h (4 Bft)
28.10.2022 03:42 15,6 C 13,9 C 84 % 1022,2 hPa 0,0 l/m 8,9 km/h (2 Bft) S 184 0 min 0,0 UV-I 0 W/m 12,9 C 14,3 C 14,5 km/h (3 Bft)
28.10.2022 03:45 15,7 C 13,9 C 83 % 1022,5 hPa 0,0 l/m 7,2 km/h (2 Bft) SW 229 0 min 0,0 UV-I 0 W/m 12,8 C 15,3 C 12,9 km/h (3 Bft)
28.10.2022 03:48 15,6 C 13,3 C 83 % 1022,3 hPa 0,0 l/m 4,0 km/h (1 Bft) SW 234 0 min 0,0 UV-I 0 W/m 12,7 C 15,6 C 6,4 km/h (2 Bft)
28.10.2022 03:51 15,4 C 13,3 C 83 % 1022,3 hPa 0,0 l/m 3,2 km/h (1 Bft) SW 234 0 min 0,0 UV-I 0 W/m 12,5 C 15,4 C 4,8 km/h (1 Bft)
28.10.2022 03:54 15,1 C 12,8 C 84 % 1022,1 hPa 0,0 l/m 3,5 km/h (1 Bft) SW 232 0 min 0,0 UV-I 0 W/m 12,4 C 15,1 C 6,4 km/h (2 Bft)
28.10.2022 03:57 14,8 C 12,8 C 84 % 1022,2 hPa 0,0 l/m 3,8 km/h (1 Bft) SW 215 0 min 0,0 UV-I 0 W/m 12,1 C 14,8 C 4,8 km/h (1 Bft)
28.10.2022 04:00 14,8 C 12,8 C 85 % 1022,1 hPa 0,0 l/m 7,7 km/h (2 Bft) S 173 0 min 0,0 UV-I 0 W/m 12,3 C 14,1 C 14,5 km/h (3 Bft)
28.10.2022 04:03 15,0 C 12,8 C 85 % 1022,0 hPa 0,0 l/m 6,1 km/h (2 Bft) S 190 0 min 0,0 UV-I 0 W/m 12,5 C 15,0 C 9,7 km/h (2 Bft)
28.10.2022 04:06 15,1 C 12,8 C 84 % 1022,0 hPa 0,0 l/m 6,8 km/h (2 Bft) S-SW 192 0 min 0,0 UV-I 0 W/m 12,4 C 14,9 C 11,3 km/h (2 Bft)
28.10.2022 04:09 14,9 C 12,2 C 84 % 1022,1 hPa 0,0 l/m 4,0 km/h (1 Bft) S 190 0 min 0,0 UV-I 0 W/m 12,2 C 14,9 C 6,4 km/h (2 Bft)
28.10.2022 04:12 14,8 C 12,8 C 85 % 1021,9 hPa 0,0 l/m 6,6 km/h (2 Bft) SO 144 0 min 0,0 UV-I 0 W/m 12,3 C 14,7 C 11,3 km/h (2 Bft)
28.10.2022 04:15 14,9 C 12,8 C 86 % 1022,0 hPa 0,0 l/m 6,7 km/h (2 Bft) S-SO 156 0 min 0,0 UV-I 0 W/m 12,6 C 14,7 C 12,9 km/h (3 Bft)
28.10.2022 04:18 14,9 C 12,8 C 86 % 1021,9 hPa 0,0 l/m 8,1 km/h (2 Bft) SO 145 0 min 0,0 UV-I 0 W/m 12,6 C 13,9 C 14,5 km/h (3 Bft)
28.10.2022 04:21 15,1 C 13,3 C 86 % 1021,8 hPa 0,0 l/m 8,9 km/h (2 Bft) SO 136 0 min 0,0 UV-I 0 W/m 12,8 C 13,7 C 12,9 km/h (3 Bft)
28.10.2022 04:24 15,1 C 13,9 C 85 % 1021,8 hPa 0,0 l/m 7,8 km/h (2 Bft) SO 143 0 min 0,0 UV-I 0 W/m 12,6 C 14,3 C 12,9 km/h (3 Bft)
28.10.2022 04:27 15,1 C 13,9 C 85 % 1021,7 hPa 0,0 l/m 7,4 km/h (2 Bft) S-SO 150 0 min 0,0 UV-I 0 W/m 12,6 C 14,5 C 12,9 km/h (3 Bft)
28.10.2022 04:30 15,2 C 13,9 C 85 % 1021,8 hPa 0,0 l/m 8,1 km/h (2 Bft) S-SO 151 0 min 0,0 UV-I 0 W/m 12,7 C 14,3 C 14,5 km/h (3 Bft)
28.10.2022 04:33 15,2 C 13,9 C 85 % 1021,7 hPa 0,0 l/m 7,1 km/h (2 Bft) S-SO 150 0 min 0,0 UV-I 0 W/m 12,7 C 14,8 C 11,3 km/h (2 Bft)
28.10.2022 04:36 15,2 C 13,9 C 85 % 1021,7 hPa 0,0 l/m 6,4 km/h (2 Bft) SO 144 0 min 0,0 UV-I 0 W/m 12,7 C 15,2 C 9,7 km/h (2 Bft)
28.10.2022 04:39 15,2 C 13,9 C 85 % 1021,7 hPa 0,0 l/m 7,2 km/h (2 Bft) SO 140 0 min 0,0 UV-I 0 W/m 12,7 C 14,8 C 11,3 km/h (2 Bft)
28.10.2022 04:42 15,2 C 13,3 C 85 % 1021,7 hPa 0,0 l/m 6,3 km/h (2 Bft) S-SO 157 0 min 0,0 UV-I 0 W/m 12,7 C 15,2 C 12,9 km/h (3 Bft)
28.10.2022 04:45 15,2 C 13,9 C 85 % 1021,6 hPa 0,0 l/m 7,6 km/h (2 Bft) SO 132 0 min 0,0 UV-I 0 W/m 12,7 C 14,5 C 12,9 km/h (3 Bft)
28.10.2022 04:48 15,1 C 13,3 C 86 % 1021,6 hPa 0,0 l/m 9,3 km/h (2 Bft) SO 124 0 min 0,0 UV-I 0 W/m 12,8 C 13,6 C 14,5 km/h (3 Bft)
28.10.2022 04:51 15,2 C 13,9 C 86 % 1021,5 hPa 0,0 l/m 9,4 km/h (2 Bft) SO 138 0 min 0,0 UV-I 0 W/m 12,9 C 13,6 C 16,1 km/h (3 Bft)
28.10.2022 04:54 15,2 C 13,9 C 86 % 1021,5 hPa 0,0 l/m 9,8 km/h (2 Bft) S-SO 160 0 min 0,0 UV-I 0 W/m 12,9 C 13,4 C 14,5 km/h (3 Bft)
28.10.2022 04:57 15,2 C 13,9 C 86 % 1021,5 hPa 0,0 l/m 9,3 km/h (2 Bft) SO 137 0 min 0,0 UV-I 0 W/m 12,9 C 13,7 C 16,1 km/h (3 Bft)
28.10.2022 05:00 15,1 C 13,9 C 86 % 1021,4 hPa 0,0 l/m 7,7 km/h (2 Bft) SO 144 0 min 0,0 UV-I 0 W/m 12,8 C 14,4 C 11,3 km/h (2 Bft)
28.10.2022 05:03 15,1 C 13,9 C 86 % 1021,5 hPa 0,0 l/m 8,4 km/h (2 Bft) S-SO 153 0 min 0,0 UV-I 0 W/m 12,8 C 14,0 C 11,3 km/h (2 Bft)
28.10.2022 05:06 15,1 C 13,9 C 86 % 1021,5 hPa 0,0 l/m 6,7 km/h (2 Bft) S-SO 152 0 min 0,0 UV-I 0 W/m 12,8 C 14,9 C 12,9 km/h (3 Bft)
28.10.2022 05:09 15,1 C 13,9 C 86 % 1021,5 hPa 0,0 l/m 9,8 km/h (2 Bft) SO 138 0 min 0,0 UV-I 0 W/m 12,8 C 13,3 C 14,5 km/h (3 Bft)
28.10.2022 05:12 15,2 C 13,9 C 86 % 1021,5 hPa 0,0 l/m 8,4 km/h (2 Bft) S-SO 150 0 min 0,0 UV-I 0 W/m 12,9 C 14,1 C 12,9 km/h (3 Bft)
28.10.2022 05:15 15,1 C 13,9 C 86 % 1021,5 hPa 0,0 l/m 7,3 km/h (2 Bft) S-SO 150 0 min 0,0 UV-I 0 W/m 12,8 C 14,6 C 12,9 km/h (3 Bft)
28.10.2022 05:18 15,1 C 13,9 C 86 % 1021,5 hPa 0,0 l/m 7,2 km/h (2 Bft) S-SO 161 0 min 0,0 UV-I 0 W/m 12,8 C 14,6 C 12,9 km/h (3 Bft)
28.10.2022 05:21 15,1 C 13,9 C 86 % 1021,4 hPa 0,0 l/m 9,7 km/h (2 Bft) S-SO 149 0 min 0,0 UV-I 0 W/m 12,8 C 13,4 C 17,7 km/h (3 Bft)
28.10.2022 05:24 15,1 C 13,9 C 86 % 1021,5 hPa 0,0 l/m 7,6 km/h (2 Bft) S-SO 150 0 min 0,0 UV-I 0 W/m 12,8 C 14,4 C 11,3 km/h (2 Bft)
28.10.2022 05:27 15,1 C 13,9 C 86 % 1021,3 hPa 0,0 l/m 7,9 km/h (2 Bft) SO 140 0 min 0,0 UV-I 0 W/m 12,8 C 14,3 C 14,5 km/h (3 Bft)
28.10.2022 05:30 15,0 C 13,9 C 86 % 1021,4 hPa 0,0 l/m 7,5 km/h (2 Bft) S-SO 147 0 min 0,0 UV-I 0 W/m 12,7 C 14,4 C 11,3 km/h (2 Bft)
28.10.2022 05:33 15,0 C 13,3 C 86 % 1021,3 hPa 0,0 l/m 7,2 km/h (2 Bft) S-SO 152 0 min 0,0 UV-I 0 W/m 12,7 C 14,5 C 11,3 km/h (2 Bft)
28.10.2022 05:36 15,0 C 13,9 C 86 % 1021,3 hPa 0,0 l/m 7,8 km/h (2 Bft) S-SO 161 0 min 0,0 UV-I 0 W/m 12,7 C 14,2 C 11,3 km/h (2 Bft)
28.10.2022 05:39 15,0 C 13,3 C 86 % 1021,3 hPa 0,0 l/m 6,8 km/h (2 Bft) SO 136 0 min 0,0 UV-I 0 W/m 12,7 C 14,8 C 12,9 km/h (3 Bft)
28.10.2022 05:42 14,9 C 13,3 C 86 % 1021,2 hPa 0,0 l/m 7,9 km/h (2 Bft) SO 143 0 min 0,0 UV-I 0 W/m 12,6 C 14,1 C 14,5 km/h (3 Bft)
28.10.2022 05:45 14,9 C 13,3 C 86 % 1021,2 hPa 0,0 l/m 7,5 km/h (2 Bft) S-SO 147 0 min 0,0 UV-I 0 W/m 12,6 C 14,3 C 12,9 km/h (3 Bft)
28.10.2022 05:48 14,9 C 13,3 C 86 % 1021,2 hPa 0,0 l/m 9,9 km/h (2 Bft) S 180 0 min 0,0 UV-I 0 W/m 12,6 C 13,1 C 16,1 km/h (3 Bft)
28.10.2022 05:51 14,9 C 13,9 C 86 % 1021,1 hPa 0,0 l/m 9,2 km/h (2 Bft) S-SO 157 0 min 0,0 UV-I 0 W/m 12,6 C 13,4 C 16,1 km/h (3 Bft)
28.10.2022 05:54 14,9 C 13,9 C 86 % 1021,1 hPa 0,0 l/m 7,3 km/h (2 Bft) S 175 0 min 0,0 UV-I 0 W/m 12,6 C 14,4 C 11,3 km/h (2 Bft)
28.10.2022 05:57 14,8 C 13,3 C 86 % 1021,1 hPa 0,0 l/m 8,1 km/h (2 Bft) S 178 0 min 0,0 UV-I 0 W/m 12,5 C 13,8 C 11,3 km/h (2 Bft)
28.10.2022 06:00 14,8 C 13,3 C 86 % 1021,0 hPa 0,0 l/m 8,1 km/h (2 Bft) S-SO 167 0 min 0,0 UV-I 0 W/m 12,5 C 13,8 C 16,1 km/h (3 Bft)
28.10.2022 06:03 14,8 C 13,3 C 86 % 1021,1 hPa 0,0 l/m 7,9 km/h (2 Bft) SO 134 0 min 0,0 UV-I 0 W/m 12,5 C 13,9 C 12,9 km/h (3 Bft)
28.10.2022 06:06 14,8 C 13,3 C 86 % 1021,1 hPa 0,0 l/m 8,4 km/h (2 Bft) S-SO 163 0 min 0,0 UV-I 0 W/m 12,5 C 13,7 C 12,9 km/h (3 Bft)
28.10.2022 06:09 14,8 C 13,3 C 86 % 1021,2 hPa 0,0 l/m 10,1 km/h (2 Bft) SO 135 0 min 0,0 UV-I 0 W/m 12,5 C 12,9 C 16,1 km/h (3 Bft)
28.10.2022 06:12 14,8 C 13,9 C 86 % 1021,3 hPa 0,0 l/m 8,8 km/h (2 Bft) S-SO 148 0 min 0,0 UV-I 0 W/m 12,5 C 13,5 C 12,9 km/h (3 Bft)
28.10.2022 06:15 14,8 C 13,3 C 86 % 1021,2 hPa 0,0 l/m 8,3 km/h (2 Bft) SO 145 0 min 0,0 UV-I 0 W/m 12,5 C 13,7 C 12,9 km/h (3 Bft)
28.10.2022 06:18 14,8 C 13,3 C 86 % 1021,2 hPa 0,0 l/m 9,4 km/h (2 Bft) SO 146 0 min 0,0 UV-I 0 W/m 12,5 C 13,2 C 14,5 km/h (3 Bft)
28.10.2022 06:21 14,7 C 13,3 C 86 % 1021,3 hPa 0,0 l/m 9,1 km/h (2 Bft) S-SO 157 0 min 0,0 UV-I 0 W/m 12,4 C 13,2 C 12,9 km/h (3 Bft)
28.10.2022 06:24 14,7 C 13,3 C 86 % 1021,3 hPa 0,0 l/m 9,4 km/h (2 Bft) SO 137 0 min 0,0 UV-I 0 W/m 12,4 C 13,1 C 14,5 km/h (3 Bft)
28.10.2022 06:27 14,7 C 13,3 C 86 % 1021,2 hPa 0,0 l/m 8,5 km/h (2 Bft) S-SO 162 0 min 0,0 UV-I 0 W/m 12,4 C 13,5 C 12,9 km/h (3 Bft)
28.10.2022 06:30 14,6 C 13,3 C 86 % 1021,2 hPa 0,0 l/m 8,2 km/h (2 Bft) S 175 0 min 0,0 UV-I 0 W/m 12,3 C 13,6 C 11,3 km/h (2 Bft)
28.10.2022 06:33 14,6 C 12,8 C 86 % 1021,2 hPa 0,0 l/m 7,6 km/h (2 Bft) S-SO 162 0 min 0,0 UV-I 0 W/m 12,3 C 13,9 C 12,9 km/h (3 Bft)
28.10.2022 06:36 14,7 C 13,3 C 86 % 1021,2 hPa 0,0 l/m 10,8 km/h (2 Bft) SO 144 0 min 0,0 UV-I 0 W/m 12,4 C 12,4 C 22,5 km/h (4 Bft)
28.10.2022 06:39 14,7 C 13,3 C 85 % 1021,2 hPa 0,0 l/m 10,2 km/h (2 Bft) SO 144 0 min 0,0 UV-I 0 W/m 12,2 C 12,7 C 14,5 km/h (3 Bft)
28.10.2022 06:42 14,7 C 13,3 C 85 % 1021,1 hPa 0,0 l/m 10,7 km/h (2 Bft) SO 144 0 min 0,0 UV-I 0 W/m 12,2 C 12,5 C 16,1 km/h (3 Bft)
28.10.2022 06:45 14,7 C 13,3 C 86 % 1021,1 hPa 0,0 l/m 11,2 km/h (2 Bft) SO 138 0 min 0,0 UV-I 0 W/m 12,4 C 12,3 C 16,1 km/h (3 Bft)
28.10.2022 06:48 14,6 C 13,3 C 86 % 1021,1 hPa 0,0 l/m 12,2 km/h (2 Bft) SO 145 0 min 0,0 UV-I 0 W/m 12,3 C 11,7 C 17,7 km/h (3 Bft)
28.10.2022 06:51 14,7 C 13,3 C 86 % 1021,0 hPa 0,0 l/m 11,3 km/h (2 Bft) SO 138 0 min 0,0 UV-I 0 W/m 12,4 C 12,2 C 17,7 km/h (3 Bft)
28.10.2022 06:54 14,7 C 13,3 C 86 % 1021,0 hPa 0,0 l/m 11,3 km/h (2 Bft) SO 139 0 min 0,0 UV-I 0 W/m 12,4 C 12,2 C 17,7 km/h (3 Bft)
28.10.2022 06:57 14,7 C 13,3 C 86 % 1021,0 hPa 0,0 l/m 11,1 km/h (2 Bft) S-SO 157 0 min 0,0 UV-I 0 W/m 12,4 C 12,3 C 17,7 km/h (3 Bft)
28.10.2022 07:00 14,7 C 13,3 C 86 % 1021,0 hPa 0,0 l/m 12,2 km/h (2 Bft) S-SO 157 0 min 0,0 UV-I 0 W/m 12,4 C 11,8 C 20,9 km/h (4 Bft)
28.10.2022 07:01 14,7 C 13,3 C 85 % 1021,0 hPa 0,0 l/m 12,9 km/h (3 Bft) SO 135 0 min 0,0 UV-I 0 W/m 12,2 C 11,6 C 22,5 km/h (4 Bft)
28.10.2022 07:03 14,8 C 13,9 C 85 % 1021,0 hPa 0,0 l/m 13,5 km/h (3 Bft) S-SO 155 0 min 0,0 UV-I 0 W/m 12,3 C 11,5 C 20,9 km/h (4 Bft)
28.10.2022 07:06 14,8 C 13,9 C 85 % 1021,0 hPa 0,0 l/m 12,9 km/h (3 Bft) S-SO 152 0 min 0,0 UV-I 0 W/m 12,3 C 11,7 C 20,9 km/h (4 Bft)
28.10.2022 07:09 14,9 C 13,9 C 84 % 1021,0 hPa 0,0 l/m 13,2 km/h (3 Bft) S-SO 154 0 min 0,0 UV-I 0 W/m 12,2 C 11,7 C 20,9 km/h (4 Bft)
28.10.2022 07:12 14,9 C 13,9 C 84 % 1021,1 hPa 0,0 l/m 13,3 km/h (3 Bft) S 179 0 min 0,0 UV-I 0 W/m 12,2 C 11,7 C 19,3 km/h (3 Bft)
28.10.2022 07:15 14,9 C 13,9 C 84 % 1021,0 hPa 0,0 l/m 13,5 km/h (3 Bft) S-SO 152 0 min 0,0 UV-I 0 W/m 12,2 C 11,6 C 20,9 km/h (4 Bft)
28.10.2022 07:18 14,8 C 13,3 C 84 % 1021,0 hPa 0,0 l/m 12,4 km/h (3 Bft) S-SO 149 0 min 0,0 UV-I 0 W/m 12,1 C 11,9 C 17,7 km/h (3 Bft)
28.10.2022 07:21 14,8 C 13,9 C 85 % 1021,0 hPa 0,0 l/m 13,3 km/h (3 Bft) SO 142 0 min 0,0 UV-I 0 W/m 12,3 C 11,5 C 20,9 km/h (4 Bft)
28.10.2022 07:24 14,8 C 13,3 C 85 % 1021,0 hPa 0,0 l/m 11,8 km/h (2 Bft) S-SO 161 0 min 0,0 UV-I 0 W/m 12,3 C 12,1 C 17,7 km/h (3 Bft)
28.10.2022 07:27 14,8 C 13,9 C 85 % 1021,0 hPa 0,0 l/m 11,7 km/h (2 Bft) SO 144 0 min 0,0 UV-I 0 W/m 12,3 C 12,2 C 17,7 km/h (3 Bft)
28.10.2022 07:30 14,8 C 13,3 C 85 % 1021,0 hPa 0,0 l/m 11,9 km/h (2 Bft) SO 127 0 min 0,0 UV-I 0 W/m 12,3 C 12,1 C 22,5 km/h (4 Bft)
28.10.2022 07:33 14,8 C 13,9 C 84 % 1021,0 hPa 0,0 l/m 12,3 km/h (3 Bft) S-SO 161 0 min 0,0 UV-I 0 W/m 12,1 C 11,9 C 19,3 km/h (3 Bft)
28.10.2022 07:36 14,8 C 13,9 C 84 % 1021,0 hPa 0,0 l/m 11,9 km/h (2 Bft) SO 129 0 min 0,0 UV-I 0 W/m 12,1 C 12,1 C 17,7 km/h (3 Bft)
28.10.2022 07:39 14,7 C 13,3 C 84 % 1021,0 hPa 0,0 l/m 10,9 km/h (2 Bft) S-SO 150 0 min 0,0 UV-I 0 W/m 12,0 C 12,4 C 19,3 km/h (3 Bft)
28.10.2022 07:42 14,7 C 13,3 C 85 % 1021,0 hPa 0,0 l/m 11,3 km/h (2 Bft) S-SO 154 0 min 0,0 UV-I 0 W/m 12,2 C 12,2 C 17,7 km/h (3 Bft)
28.10.2022 07:45 14,7 C 13,3 C 85 % 1021,0 hPa 0,0 l/m 11,0 km/h (2 Bft) SO 144 0 min 0,0 UV-I 0 W/m 12,2 C 12,3 C 17,7 km/h (3 Bft)
28.10.2022 07:48 14,7 C 13,3 C 85 % 1021,0 hPa 0,0 l/m 10,3 km/h (2 Bft) S 175 0 min 0,0 UV-I 0 W/m 12,2 C 12,6 C 16,1 km/h (3 Bft)
28.10.2022 07:51 14,6 C 13,3 C 84 % 1021,1 hPa 0,0 l/m 9,4 km/h (2 Bft) S-SO 161 0 min 0,0 UV-I 0 W/m 11,9 C 13,0 C 16,1 km/h (3 Bft)
28.10.2022 07:54 14,6 C 13,3 C 85 % 1021,1 hPa 0,0 l/m 10,7 km/h (2 Bft) S-SO 149 0 min 0,0 UV-I 0 W/m 12,1 C 12,4 C 17,7 km/h (3 Bft)
28.10.2022 07:57 14,6 C 13,3 C 85 % 1021,1 hPa 0,0 l/m 10,6 km/h (2 Bft) S-SO 150 0 min 0,0 UV-I 0 W/m 12,1 C 12,4 C 14,5 km/h (3 Bft)
28.10.2022 08:00 14,6 C 13,3 C 84 % 1021,1 hPa 0,0 l/m 7,6 km/h (2 Bft) S-SO 148 0 min 0,0 UV-I 0 W/m 11,9 C 13,9 C 14,5 km/h (3 Bft)
28.10.2022 08:03 14,5 C 13,3 C 85 % 1021,1 hPa 0,0 l/m 8,0 km/h (2 Bft) SO 138 0 min 0,0 UV-I 0 W/m 12,0 C 13,6 C 17,7 km/h (3 Bft)
28.10.2022 08:06 14,4 C 12,8 C 85 % 1021,1 hPa 0,0 l/m 7,2 km/h (2 Bft) S-SO 158 0 min 0,0 UV-I 0 W/m 11,9 C 13,9 C 11,3 km/h (2 Bft)
28.10.2022 08:09 14,4 C 12,8 C 85 % 1021,1 hPa 0,0 l/m 10,3 km/h (2 Bft) SO 138 0 min 0,0 UV-I 0 W/m 11,9 C 12,3 C 17,7 km/h (3 Bft)
28.10.2022 08:12 14,3 C 12,8 C 85 % 1021,2 hPa 0,0 l/m 8,1 km/h (2 Bft) S-SO 152 0 min 0,0 UV-I 0 W/m 11,8 C 13,3 C 12,9 km/h (3 Bft)
28.10.2022 08:15 14,4 C 13,3 C 85 % 1021,1 hPa 0,0 l/m 9,2 km/h (2 Bft) S-SO 158 0 min 0,0 UV-I 0 W/m 11,9 C 12,8 C 16,1 km/h (3 Bft)
28.10.2022 08:18 14,3 C 12,8 C 85 % 1021,1 hPa 0,0 l/m 7,5 km/h (2 Bft) S 175 0 min 0,0 UV-I 5 W/m 11,8 C 13,7 C 14,5 km/h (3 Bft)
28.10.2022 08:21 14,4 C 13,3 C 85 % 1021,0 hPa 0,0 l/m 8,6 km/h (2 Bft) SO 132 0 min 0,0 UV-I 7 W/m 11,9 C 13,1 C 17,7 km/h (3 Bft)
28.10.2022 08:24 14,3 C 12,8 C 85 % 1021,0 hPa 0,0 l/m 5,5 km/h (1 Bft) S-SO 155 0 min 0,0 UV-I 8 W/m 11,8 C 14,3 C 11,3 km/h (2 Bft)
28.10.2022 08:27 14,3 C 12,8 C 85 % 1021,0 hPa 0,0 l/m 5,4 km/h (1 Bft) S 179 0 min 0,0 UV-I 11 W/m 11,8 C 14,3 C 8,0 km/h (2 Bft)
28.10.2022 08:30 14,3 C 12,8 C 85 % 1021,1 hPa 0,0 l/m 5,9 km/h (2 Bft) SO 143 0 min 0,0 UV-I 14 W/m 11,8 C 14,3 C 11,3 km/h (2 Bft)
28.10.2022 08:33 14,3 C 12,8 C 85 % 1021,1 hPa 0,0 l/m 5,9 km/h (2 Bft) S-SO 151 0 min 0,0 UV-I 18 W/m 11,8 C 14,3 C 11,3 km/h (2 Bft)
28.10.2022 08:36 14,3 C 12,8 C 85 % 1021,1 hPa 0,0 l/m 5,7 km/h (1 Bft) S-SO 164 0 min 0,0 UV-I 20 W/m 11,8 C 14,3 C 11,3 km/h (2 Bft)
28.10.2022 08:39 14,3 C 12,8 C 85 % 1021,1 hPa 0,0 l/m 5,5 km/h (1 Bft) S-SO 156 0 min 0,0 UV-I 21 W/m 11,8 C 14,3 C 9,7 km/h (2 Bft)
28.10.2022 08:42 14,3 C 12,8 C 85 % 1021,2 hPa 0,0 l/m 5,9 km/h (2 Bft) S-SO 168 0 min 0,0 UV-I 24 W/m 11,8 C 14,3 C 9,7 km/h (2 Bft)
28.10.2022 08:45 14,4 C 12,8 C 85 % 1021,2 hPa 0,0 l/m 7,8 km/h (2 Bft) S-SO 160 0 min 0,0 UV-I 26 W/m 11,9 C 13,6 C 12,9 km/h (3 Bft)
28.10.2022 08:48 14,4 C 13,3 C 85 % 1021,2 hPa 0,0 l/m 6,4 km/h (2 Bft) S-SO 154 0 min 0,0 UV-I 31 W/m 11,9 C 14,4 C 11,3 km/h (2 Bft)
28.10.2022 08:51 14,4 C 13,3 C 85 % 1021,3 hPa 0,0 l/m 9,2 km/h (2 Bft) SO 136 0 min 0,0 UV-I 34 W/m 11,9 C 12,8 C 14,5 km/h (3 Bft)
28.10.2022 08:54 14,5 C 13,3 C 85 % 1021,2 hPa 0,0 l/m 11,0 km/h (2 Bft) S-SO 163 0 min 0,0 UV-I 36 W/m 12,0 C 12,1 C 17,7 km/h (3 Bft)
28.10.2022 08:57 14,6 C 13,9 C 85 % 1021,2 hPa 0,0 l/m 9,5 km/h (2 Bft) SO 145 0 min 0,0 UV-I 37 W/m 12,1 C 12,9 C 16,1 km/h (3 Bft)
28.10.2022 09:00 14,5 C 13,9 C 85 % 1021,2 hPa 0,0 l/m 9,6 km/h (2 Bft) S-SO 167 0 min 0,0 UV-I 38 W/m 12,0 C 12,8 C 14,5 km/h (3 Bft)
28.10.2022 09:03 14,5 C 13,9 C 85 % 1021,2 hPa 0,0 l/m 9,5 km/h (2 Bft) S-SW 193 0 min 0,0 UV-I 38 W/m 12,0 C 12,8 C 16,1 km/h (3 Bft)
28.10.2022 09:06 14,6 C 13,9 C 85 % 1021,3 hPa 0,0 l/m 6,9 km/h (2 Bft) S-SO 162 0 min 0,0 UV-I 40 W/m 12,1 C 14,3 C 11,3 km/h (2 Bft)
28.10.2022 09:09 14,6 C 13,9 C 84 % 1021,3 hPa 0,0 l/m 5,7 km/h (1 Bft) S-SO 167 0 min 0,0 UV-I 44 W/m 11,9 C 14,6 C 9,7 km/h (2 Bft)
28.10.2022 09:12 14,8 C 13,9 C 84 % 1021,4 hPa 0,0 l/m 7,8 km/h (2 Bft) S-SO 161 0 min 0,0 UV-I 48 W/m 12,1 C 14,0 C 14,5 km/h (3 Bft)
28.10.2022 09:15 14,8 C 14,4 C 84 % 1021,4 hPa 0,0 l/m 7,5 km/h (2 Bft) S-SO 157 0 min 0,0 UV-I 55 W/m 12,1 C 14,2 C 11,3 km/h (2 Bft)
28.10.2022 09:18 14,9 C 14,4 C 84 % 1021,3 hPa 0,0 l/m 7,4 km/h (2 Bft) SO 140 0 min 0,0 UV-I 68 W/m 12,2 C 14,3 C 12,9 km/h (3 Bft)
28.10.2022 09:21 14,9 C 15,0 C 84 % 1021,3 hPa 0,0 l/m 7,0 km/h (2 Bft) S 171 0 min 0,0 UV-I 68 W/m 12,2 C 14,6 C 12,9 km/h (3 Bft)
28.10.2022 09:24 15,0 C 15,0 C 84 % 1021,4 hPa 0,0 l/m 7,1 km/h (2 Bft) S-SO 155 0 min 0,0 UV-I 70 W/m 12,3 C 14,6 C 12,9 km/h (3 Bft)
28.10.2022 09:27 15,1 C 15,0 C 84 % 1021,4 hPa 0,0 l/m 9,4 km/h (2 Bft) S-SO 154 0 min 0,0 UV-I 83 W/m 12,4 C 13,5 C 14,5 km/h (3 Bft)
28.10.2022 09:30 15,1 C 15,0 C 84 % 1021,5 hPa 0,0 l/m 9,6 km/h (2 Bft) SO 128 0 min 0,0 UV-I 81 W/m 12,4 C 13,4 C 14,5 km/h (3 Bft)
28.10.2022 09:33 15,1 C 15,6 C 83 % 1021,5 hPa 0,0 l/m 7,2 km/h (2 Bft) SO 134 0 min 0,0 UV-I 82 W/m 12,2 C 14,6 C 12,9 km/h (3 Bft)
28.10.2022 09:36 15,2 C 15,6 C 83 % 1021,5 hPa 0,0 l/m 9,2 km/h (2 Bft) S-SO 148 0 min 0,0 UV-I 91 W/m 12,3 C 13,7 C 16,1 km/h (3 Bft)
28.10.2022 09:39 15,2 C 15,6 C 83 % 1021,4 hPa 0,0 l/m 6,0 km/h (2 Bft) S-SO 152 0 min 0,0 UV-I 90 W/m 12,3 C 15,2 C 9,7 km/h (2 Bft)
28.10.2022 09:42 15,4 C 15,6 C 83 % 1021,5 hPa 0,0 l/m 8,2 km/h (2 Bft) SO 135 0 min 0,0 UV-I 88 W/m 12,5 C 14,4 C 12,9 km/h (3 Bft)
28.10.2022 09:45 15,4 C 15,6 C 82 % 1021,5 hPa 0,0 l/m 8,1 km/h (2 Bft) S-SO 157 0 min 0,0 UV-I 87 W/m 12,3 C 14,5 C 12,9 km/h (3 Bft)
28.10.2022 09:48 15,5 C 15,6 C 82 % 1021,5 hPa 0,0 l/m 6,4 km/h (2 Bft) S-SO 163 0 min 0,0 UV-I 77 W/m 12,4 C 15,5 C 11,3 km/h (2 Bft)
28.10.2022 09:51 15,6 C 15,6 C 82 % 1021,5 hPa 0,0 l/m 7,6 km/h (2 Bft) S-SO 162 0 min 0,0 UV-I 88 W/m 12,5 C 14,9 C 12,9 km/h (3 Bft)
28.10.2022 09:54 15,6 C 15,6 C 82 % 1021,6 hPa 0,0 l/m 6,8 km/h (2 Bft) S-SO 157 0 min 0,4 UV-I 95 W/m 12,5 C 15,4 C 9,7 km/h (2 Bft)
28.10.2022 09:57 15,6 C 16,1 C 82 % 1021,5 hPa 0,0 l/m 6,9 km/h (2 Bft) S-SO 154 0 min 0,5 UV-I 97 W/m 12,5 C 15,3 C 14,5 km/h (3 Bft)
28.10.2022 10:00 15,5 C 15,6 C 82 % 1021,5 hPa 0,0 l/m 7,6 km/h (2 Bft) S-SO 151 0 min 0,5 UV-I 86 W/m 12,4 C 14,8 C 12,9 km/h (3 Bft)
28.10.2022 10:03 15,4 C 15,6 C 82 % 1021,5 hPa 0,0 l/m 5,4 km/h (1 Bft) S-SO 148 0 min 0,5 UV-I 70 W/m 12,3 C 15,4 C 12,9 km/h (3 Bft)
28.10.2022 10:06 15,6 C 15,6 C 82 % 1021,5 hPa 0,0 l/m 5,3 km/h (1 Bft) S 171 0 min 0,5 UV-I 69 W/m 12,5 C 15,6 C 9,7 km/h (2 Bft)
28.10.2022 10:09 15,5 C 15,0 C 82 % 1021,5 hPa 0,0 l/m 6,7 km/h (2 Bft) S-SO 150 0 min 0,5 UV-I 70 W/m 12,4 C 15,3 C 12,9 km/h (3 Bft)
28.10.2022 10:12 15,6 C 15,0 C 82 % 1021,5 hPa 0,0 l/m 5,2 km/h (1 Bft) S-SO 159 0 min 0,5 UV-I 67 W/m 12,5 C 15,6 C 9,7 km/h (2 Bft)
28.10.2022 10:15 15,6 C 15,6 C 82 % 1021,6 hPa 0,0 l/m 6,8 km/h (2 Bft) SO 139 0 min 0,6 UV-I 83 W/m 12,5 C 15,4 C 11,3 km/h (2 Bft)
28.10.2022 10:18 15,6 C 15,6 C 82 % 1021,6 hPa 0,0 l/m 8,9 km/h (2 Bft) S-SO 153 0 min 0,7 UV-I 118 W/m 12,5 C 14,3 C 12,9 km/h (3 Bft)
28.10.2022 10:21 15,8 C 16,7 C 81 % 1021,5 hPa 0,0 l/m 6,8 km/h (2 Bft) S-SO 153 0 min 0,7 UV-I 163 W/m 12,5 C 15,6 C 11,3 km/h (2 Bft)
28.10.2022 10:24 15,9 C 17,8 C 81 % 1021,5 hPa 0,0 l/m 5,3 km/h (1 Bft) S-SO 164 0 min 0,8 UV-I 181 W/m 12,6 C 15,9 C 8,0 km/h (2 Bft)
28.10.2022 10:27 15,9 C 17,8 C 81 % 1021,5 hPa 0,0 l/m 6,9 km/h (2 Bft) S-SO 157 0 min 0,8 UV-I 170 W/m 12,6 C 15,6 C 12,9 km/h (3 Bft)
28.10.2022 10:30 16,1 C 18,3 C 81 % 1021,4 hPa 0,0 l/m 4,6 km/h (1 Bft) SO 142 0 min 0,8 UV-I 178 W/m 12,8 C 16,1 C 9,7 km/h (2 Bft)
28.10.2022 10:33 16,1 C 18,3 C 80 % 1021,3 hPa 0,0 l/m 5,9 km/h (2 Bft) S-SO 167 0 min 0,9 UV-I 202 W/m 12,6 C 16,1 C 9,7 km/h (2 Bft)
28.10.2022 10:36 16,3 C 18,3 C 81 % 1021,4 hPa 0,0 l/m 4,9 km/h (1 Bft) S-SO 161 0 min 0,9 UV-I 233 W/m 13,0 C 16,3 C 9,7 km/h (2 Bft)
28.10.2022 10:39 16,6 C 20,0 C 81 % 1021,4 hPa 0,0 l/m 4,9 km/h (1 Bft) SO 145 0 min 1,1 UV-I 283 W/m 13,3 C 16,6 C 12,9 km/h (3 Bft)
28.10.2022 10:42 16,7 C 20,0 C 79 % 1021,4 hPa 0,0 l/m 7,4 km/h (2 Bft) S-SO 159 0 min 1,0 UV-I 240 W/m 13,0 C 16,2 C 12,9 km/h (3 Bft)
28.10.2022 10:45 16,7 C 18,9 C 79 % 1021,5 hPa 0,0 l/m 8,3 km/h (2 Bft) SO 144 0 min 1,0 UV-I 216 W/m 13,0 C 15,7 C 12,9 km/h (3 Bft)
28.10.2022 10:48 16,7 C 19,4 C 79 % 1021,6 hPa 0,0 l/m 7,8 km/h (2 Bft) S-SO 163 0 min 1,1 UV-I 256 W/m 13,0 C 16,0 C 14,5 km/h (3 Bft)
28.10.2022 10:51 16,9 C 20,0 C 79 % 1021,5 hPa 0,0 l/m 5,0 km/h (1 Bft) S-SO 156 0 min 1,1 UV-I 260 W/m 13,2 C 16,9 C 8,0 km/h (2 Bft)
28.10.2022 10:54 17,0 C 19,4 C 79 % 1021,5 hPa 0,0 l/m 6,4 km/h (2 Bft) SO 136 0 min 1,0 UV-I 192 W/m 13,3 C 17,0 C 8,0 km/h (2 Bft)
28.10.2022 10:57 16,8 C 18,9 C 79 % 1021,5 hPa 0,0 l/m 6,1 km/h (2 Bft) SO 144 0 min 1,0 UV-I 179 W/m 13,1 C 16,8 C 11,3 km/h (2 Bft)
28.10.2022 11:00 16,8 C 18,3 C 79 % 1021,6 hPa 0,0 l/m 7,1 km/h (2 Bft) SO 146 0 min 1,0 UV-I 188 W/m 13,1 C 16,4 C 11,3 km/h (2 Bft)
28.10.2022 11:03 16,9 C 18,9 C 79 % 1021,5 hPa 0,0 l/m 8,0 km/h (2 Bft) S-SO 158 0 min 1,1 UV-I 213 W/m 13,2 C 16,1 C 14,5 km/h (3 Bft)
28.10.2022 11:06 17,2 C 19,4 C 78 % 1021,6 hPa 0,0 l/m 10,8 km/h (2 Bft) O-SO 123 0 min 1,2 UV-I 274 W/m 13,3 C 15,2 C 17,7 km/h (3 Bft)
28.10.2022 11:09 17,5 C 20,6 C 78 % 1021,5 hPa 0,0 l/m 10,7 km/h (2 Bft) S-SO 157 0 min 1,2 UV-I 293 W/m 13,6 C 15,6 C 19,3 km/h (3 Bft)
28.10.2022 11:12 17,7 C 21,1 C 76 % 1021,6 hPa 0,0 l/m 13,6 km/h (3 Bft) S-SO 154 3 min 1,3 UV-I 308 W/m 13,4 C 14,9 C 29,0 km/h (5 Bft)
28.10.2022 11:15 17,7 C 20,6 C 75 % 1021,5 hPa 0,0 l/m 13,4 km/h (3 Bft) S-SO 165 0 min 1,2 UV-I 267 W/m 13,2 C 14,9 C 19,3 km/h (3 Bft)
28.10.2022 11:18 17,8 C 20,6 C 75 % 1021,7 hPa 0,0 l/m 12,6 km/h (3 Bft) S-SO 148 0 min 1,3 UV-I 283 W/m 13,3 C 15,3 C 19,3 km/h (3 Bft)
28.10.2022 11:21 17,9 C 21,1 C 75 % 1021,7 hPa 0,0 l/m 10,4 km/h (2 Bft) S-SO 150 0 min 1,3 UV-I 292 W/m 13,4 C 16,2 C 19,3 km/h (3 Bft)
28.10.2022 11:24 17,9 C 21,7 C 74 % 1021,6 hPa 0,0 l/m 9,1 km/h (2 Bft) S-SO 154 3 min 1,4 UV-I 304 W/m 13,2 C 16,7 C 17,7 km/h (3 Bft)
28.10.2022 11:27 18,1 C 21,7 C 74 % 1021,7 hPa 0,0 l/m 10,4 km/h (2 Bft) S 186 0 min 1,4 UV-I 294 W/m 13,4 C 16,4 C 19,3 km/h (3 Bft)
28.10.2022 11:30 18,1 C 21,7 C 74 % 1021,8 hPa 0,0 l/m 12,1 km/h (2 Bft) S-SO 167 3 min 1,5 UV-I 325 W/m 13,4 C 15,8 C 17,7 km/h (3 Bft)
28.10.2022 11:33 18,2 C 22,2 C 74 % 1021,7 hPa 0,0 l/m 11,2 km/h (2 Bft) S-SO 159 3 min 1,5 UV-I 343 W/m 13,5 C 16,2 C 19,3 km/h (3 Bft)
28.10.2022 11:36 18,3 C 22,2 C 73 % 1021,8 hPa 0,0 l/m 10,3 km/h (2 Bft) S-SO 167 3 min 1,5 UV-I 331 W/m 13,4 C 16,7 C 16,1 km/h (3 Bft)
28.10.2022 11:39 18,4 C 22,2 C 73 % 1021,6 hPa 0,0 l/m 11,0 km/h (2 Bft) SO 142 3 min 1,6 UV-I 362 W/m 13,5 C 16,5 C 17,7 km/h (3 Bft)
28.10.2022 11:42 18,5 C 22,2 C 74 % 1021,7 hPa 0,0 l/m 8,1 km/h (2 Bft) S-SO 153 0 min 1,5 UV-I 290 W/m 13,8 C 17,7 C 14,5 km/h (3 Bft)
28.10.2022 11:45 18,5 C 20,6 C 73 % 1021,6 hPa 0,0 l/m 10,0 km/h (2 Bft) SO 132 0 min 1,3 UV-I 203 W/m 13,6 C 17,0 C 17,7 km/h (3 Bft)
28.10.2022 11:48 18,3 C 20,0 C 73 % 1021,7 hPa 0,0 l/m 12,0 km/h (2 Bft) S-SO 165 0 min 1,3 UV-I 199 W/m 13,4 C 16,1 C 17,7 km/h (3 Bft)
28.10.2022 11:51 18,3 C 20,6 C 73 % 1021,5 hPa 0,0 l/m 15,1 km/h (3 Bft) S-SO 158 0 min 1,5 UV-I 280 W/m 13,4 C 15,2 C 29,0 km/h (5 Bft)
28.10.2022 11:54 18,4 C 21,1 C 73 % 1021,6 hPa 0,0 l/m 9,5 km/h (2 Bft) S-SO 155 0 min 1,5 UV-I 299 W/m 13,5 C 17,1 C 17,7 km/h (3 Bft)
28.10.2022 11:57 18,4 C 21,7 C 74 % 1021,5 hPa 0,0 l/m 8,8 km/h (2 Bft) S-SO 167 0 min 1,5 UV-I 288 W/m 13,7 C 17,3 C 12,9 km/h (3 Bft)
28.10.2022 12:00 18,6 C 21,7 C 73 % 1021,6 hPa 0,0 l/m 6,8 km/h (2 Bft) S 170 0 min 1,5 UV-I 282 W/m 13,7 C 18,4 C 17,7 km/h (3 Bft)
28.10.2022 12:03 18,5 C 21,7 C 73 % 1021,5 hPa 0,0 l/m 10,9 km/h (2 Bft) S 171 3 min 1,6 UV-I 315 W/m 13,6 C 16,7 C 20,9 km/h (4 Bft)
28.10.2022 12:06 18,7 C 21,7 C 73 % 1021,5 hPa 0,0 l/m 9,9 km/h (2 Bft) S-SO 148 3 min 1,6 UV-I 323 W/m 13,8 C 17,2 C 19,3 km/h (3 Bft)
28.10.2022 12:09 18,7 C 21,7 C 72 % 1021,6 hPa 0,0 l/m 12,9 km/h (3 Bft) SO 146 3 min 1,7 UV-I 340 W/m 13,5 C 16,3 C 17,7 km/h (3 Bft)
28.10.2022 12:12 18,8 C 22,2 C 73 % 1021,6 hPa 0,0 l/m 10,9 km/h (2 Bft) S-SO 150 3 min 1,7 UV-I 324 W/m 13,9 C 17,0 C 16,1 km/h (3 Bft)
28.10.2022 12:15 18,8 C 21,7 C 73 % 1021,6 hPa 0,0 l/m 9,1 km/h (2 Bft) S-SO 148 0 min 1,5 UV-I 271 W/m 13,9 C 17,6 C 14,5 km/h (3 Bft)
28.10.2022 12:18 18,7 C 21,1 C 73 % 1021,6 hPa 0,0 l/m 9,6 km/h (2 Bft) SO 137 0 min 1,6 UV-I 281 W/m 13,8 C 17,4 C 12,9 km/h (3 Bft)
28.10.2022 12:21 18,7 C 21,7 C 73 % 1021,6 hPa 0,0 l/m 9,7 km/h (2 Bft) S 188 0 min 1,6 UV-I 284 W/m 13,8 C 17,3 C 16,1 km/h (3 Bft)
28.10.2022 12:24 18,7 C 21,7 C 72 % 1021,5 hPa 0,0 l/m 10,4 km/h (2 Bft) S-SO 147 0 min 1,6 UV-I 278 W/m 13,5 C 17,1 C 20,9 km/h (4 Bft)
28.10.2022 12:27 18,6 C 21,1 C 73 % 1021,7 hPa 0,0 l/m 11,0 km/h (2 Bft) S-SO 157 0 min 1,5 UV-I 258 W/m 13,7 C 16,7 C 17,7 km/h (3 Bft)
28.10.2022 12:30 18,6 C 21,1 C 72 % 1021,7 hPa 0,0 l/m 8,6 km/h (2 Bft) S-SO 165 0 min 1,5 UV-I 237 W/m 13,4 C 17,6 C 14,5 km/h (3 Bft)
28.10.2022 12:33 18,7 C 21,7 C 73 % 1021,6 hPa 0,0 l/m 9,8 km/h (2 Bft) SO 142 0 min 1,6 UV-I 297 W/m 13,8 C 17,3 C 14,5 km/h (3 Bft)
28.10.2022 12:36 18,7 C 22,2 C 73 % 1021,5 hPa 0,0 l/m 11,0 km/h (2 Bft) S-SO 155 0 min 1,6 UV-I 300 W/m 13,8 C 16,9 C 16,1 km/h (3 Bft)
28.10.2022 12:39 18,8 C 22,2 C 73 % 1021,5 hPa 0,0 l/m 9,1 km/h (2 Bft) S-SO 148 0 min 1,6 UV-I 300 W/m 13,9 C 17,6 C 12,9 km/h (3 Bft)
28.10.2022 12:42 18,9 C 23,3 C 72 % 1021,5 hPa 0,0 l/m 10,6 km/h (2 Bft) S-SO 154 3 min 1,7 UV-I 343 W/m 13,7 C 17,2 C 17,7 km/h (3 Bft)
28.10.2022 12:45 19,0 C 22,8 C 71 % 1021,5 hPa 0,0 l/m 9,9 km/h (2 Bft) S-SO 155 3 min 1,7 UV-I 322 W/m 13,6 C 17,6 C 16,1 km/h (3 Bft)
28.10.2022 12:48 19,2 C 23,9 C 72 % 1021,5 hPa 0,0 l/m 10,6 km/h (2 Bft) S-SO 148 3 min 1,8 UV-I 348 W/m 14,0 C 17,6 C 16,1 km/h (3 Bft)
28.10.2022 12:51 19,4 C 24,4 C 71 % 1021,5 hPa 0,0 l/m 7,6 km/h (2 Bft) S 169 3 min 1,8 UV-I 324 W/m 14,0 C 18,9 C 11,3 km/h (2 Bft)
28.10.2022 12:54 19,7 C 25,6 C 71 % 1021,5 hPa 0,0 l/m 9,6 km/h (2 Bft) S 175 3 min 2,0 UV-I 393 W/m 14,3 C 18,4 C 16,1 km/h (3 Bft)
28.10.2022 12:57 19,9 C 26,7 C 70 % 1021,5 hPa 0,0 l/m 8,2 km/h (2 Bft) S-SO 155 3 min 2,1 UV-I 426 W/m 14,3 C 19,2 C 16,1 km/h (3 Bft)
28.10.2022 13:00 20,1 C 25,6 C 67 % 1021,5 hPa 0,0 l/m 13,9 km/h (3 Bft) S 172 3 min 2,1 UV-I 411 W/m 13,8 C 17,6 C 27,4 km/h (4 Bft)
28.10.2022 13:03 20,4 C 26,1 C 68 % 1021,4 hPa 0,0 l/m 7,1 km/h (2 Bft) S-SO 149 3 min 2,1 UV-I 397 W/m 14,3 C 20,1 C 11,3 km/h (2 Bft)
28.10.2022 13:06 20,4 C 26,1 C 67 % 1021,3 hPa 0,0 l/m 8,7 km/h (2 Bft) SO 134 3 min 2,0 UV-I 379 W/m 14,1 C 19,5 C 12,9 km/h (3 Bft)
28.10.2022 13:09 20,4 C 26,1 C 66 % 1021,3 hPa 0,0 l/m 9,1 km/h (2 Bft) S-SO 156 3 min 2,0 UV-I 385 W/m 13,8 C 19,4 C 16,1 km/h (3 Bft)
28.10.2022 13:12 20,5 C 25,6 C 66 % 1021,2 hPa 0,0 l/m 7,7 km/h (2 Bft) S 190 3 min 1,9 UV-I 346 W/m 13,9 C 20,0 C 14,5 km/h (3 Bft)
28.10.2022 13:15 20,5 C 25,0 C 65 % 1021,2 hPa 0,0 l/m 11,6 km/h (2 Bft) S-SW 196 3 min 1,9 UV-I 335 W/m 13,7 C 18,7 C 16,1 km/h (3 Bft)
28.10.2022 13:18 20,6 C 25,0 C 65 % 1021,1 hPa 0,0 l/m 9,1 km/h (2 Bft) S-SO 155 3 min 1,9 UV-I 352 W/m 13,8 C 19,6 C 12,9 km/h (3 Bft)
28.10.2022 13:21 20,7 C 25,6 C 65 % 1021,1 hPa 0,0 l/m 7,7 km/h (2 Bft) S-SO 158 3 min 2,1 UV-I 346 W/m 13,9 C 20,2 C 11,3 km/h (2 Bft)
28.10.2022 13:24 20,9 C 26,7 C 65 % 1021,2 hPa 0,0 l/m 11,8 km/h (2 Bft) S 178 3 min 2,2 UV-I 421 W/m 14,1 C 19,1 C 16,1 km/h (3 Bft)
28.10.2022 13:27 20,8 C 26,1 C 63 % 1021,0 hPa 0,0 l/m 15,4 km/h (3 Bft) S 182 3 min 2,1 UV-I 413 W/m 13,5 C 18,1 C 24,1 km/h (4 Bft)
28.10.2022 13:30 20,7 C 25,6 C 64 % 1021,0 hPa 0,0 l/m 11,9 km/h (2 Bft) S-SO 161 3 min 2,1 UV-I 403 W/m 13,6 C 18,9 C 19,3 km/h (3 Bft)
28.10.2022 13:33 21,0 C 26,1 C 65 % 1021,0 hPa 0,0 l/m 10,1 km/h (2 Bft) S 171 3 min 2,1 UV-I 391 W/m 14,2 C 19,7 C 16,1 km/h (3 Bft)
28.10.2022 13:36 21,1 C 25,6 C 62 % 1021,0 hPa 0,0 l/m 14,9 km/h (3 Bft) S-SO 155 3 min 2,1 UV-I 421 W/m 13,5 C 18,6 C 22,5 km/h (4 Bft)
28.10.2022 13:39 21,1 C 25,6 C 63 % 1020,9 hPa 0,0 l/m 11,3 km/h (2 Bft) S-SO 152 3 min 2,1 UV-I 406 W/m 13,8 C 19,5 C 19,3 km/h (3 Bft)
28.10.2022 13:42 21,1 C 26,1 C 62 % 1020,8 hPa 0,0 l/m 14,0 km/h (3 Bft) S-SO 158 3 min 2,1 UV-I 395 W/m 13,5 C 18,8 C 22,5 km/h (4 Bft)
28.10.2022 13:45 21,2 C 26,1 C 62 % 1020,9 hPa 0,0 l/m 12,5 km/h (3 Bft) S-SO 168 3 min 2,1 UV-I 405 W/m 13,6 C 19,3 C 19,3 km/h (3 Bft)
28.10.2022 13:48 21,2 C 26,1 C 62 % 1020,8 hPa 0,0 l/m 13,1 km/h (3 Bft) S 175 3 min 2,1 UV-I 404 W/m 13,6 C 19,1 C 19,3 km/h (3 Bft)
28.10.2022 13:51 21,2 C 26,1 C 63 % 1020,8 hPa 0,0 l/m 13,1 km/h (3 Bft) S-SO 155 3 min 2,0 UV-I 396 W/m 13,9 C 19,1 C 25,7 km/h (4 Bft)
28.10.2022 13:54 21,2 C 25,6 C 63 % 1020,9 hPa 0,0 l/m 15,6 km/h (3 Bft) S-SO 159 3 min 2,0 UV-I 395 W/m 13,9 C 18,6 C 24,1 km/h (4 Bft)
28.10.2022 13:57 21,2 C 25,6 C 63 % 1021,1 hPa 0,0 l/m 18,0 km/h (3 Bft) S 177 3 min 2,0 UV-I 404 W/m 13,9 C 18,1 C 27,4 km/h (4 Bft)
28.10.2022 14:00 21,1 C 25,0 C 63 % 1020,9 hPa 0,0 l/m 16,2 km/h (3 Bft) SO 142 3 min 2,0 UV-I 399 W/m 13,8 C 18,3 C 25,7 km/h (4 Bft)
28.10.2022 14:03 21,0 C 25,6 C 64 % 1020,9 hPa 0,0 l/m 11,6 km/h (2 Bft) SO 140 3 min 2,0 UV-I 384 W/m 13,9 C 19,3 C 19,3 km/h (3 Bft)
28.10.2022 14:06 20,9 C 26,1 C 63 % 1020,7 hPa 0,0 l/m 11,7 km/h (2 Bft) SO 137 3 min 2,0 UV-I 380 W/m 13,6 C 19,1 C 22,5 km/h (4 Bft)
28.10.2022 14:09 20,9 C 26,1 C 65 % 1020,8 hPa 0,0 l/m 8,5 km/h (2 Bft) S 174 3 min 1,9 UV-I 374 W/m 14,1 C 20,1 C 14,5 km/h (3 Bft)
28.10.2022 14:12 21,1 C 26,1 C 64 % 1020,8 hPa 0,0 l/m 11,3 km/h (2 Bft) S-SW 198 3 min 1,9 UV-I 367 W/m 14,0 C 19,5 C 20,9 km/h (4 Bft)
28.10.2022 14:15 21,1 C 25,6 C 63 % 1020,9 hPa 0,0 l/m 13,6 km/h (3 Bft) S 187 3 min 2,0 UV-I 402 W/m 13,8 C 18,9 C 20,9 km/h (4 Bft)
28.10.2022 14:18 21,1 C 26,7 C 63 % 1020,7 hPa 0,0 l/m 11,8 km/h (2 Bft) S-SO 167 3 min 2,0 UV-I 402 W/m 13,8 C 19,3 C 20,9 km/h (4 Bft)
28.10.2022 14:21 21,1 C 26,7 C 64 % 1020,8 hPa 0,0 l/m 12,3 km/h (3 Bft) S-SW 198 3 min 2,0 UV-I 401 W/m 14,0 C 19,2 C 19,3 km/h (3 Bft)
28.10.2022 14:24 21,1 C 26,7 C 64 % 1020,8 hPa 0,0 l/m 10,8 km/h (2 Bft) S 186 3 min 2,0 UV-I 402 W/m 14,0 C 19,6 C 16,1 km/h (3 Bft)
28.10.2022 14:27 20,9 C 25,6 C 65 % 1020,7 hPa 0,0 l/m 14,3 km/h (3 Bft) S 170 3 min 1,8 UV-I 351 W/m 14,1 C 18,5 C 22,5 km/h (4 Bft)
28.10.2022 14:30 20,9 C 25,6 C 64 % 1020,6 hPa 0,0 l/m 12,2 km/h (2 Bft) S 178 3 min 1,7 UV-I 332 W/m 13,8 C 19,0 C 20,9 km/h (4 Bft)
28.10.2022 14:33 20,8 C 25,0 C 65 % 1020,6 hPa 0,0 l/m 14,4 km/h (3 Bft) S-SO 157 3 min 1,7 UV-I 341 W/m 14,0 C 18,4 C 20,9 km/h (4 Bft)
28.10.2022 14:36 20,6 C 23,9 C 65 % 1020,5 hPa 0,0 l/m 16,1 km/h (3 Bft) S 179 3 min 1,7 UV-I 318 W/m 13,8 C 17,7 C 24,1 km/h (4 Bft)
28.10.2022 14:39 20,6 C 24,4 C 66 % 1020,6 hPa 0,0 l/m 10,2 km/h (2 Bft) S 175 3 min 1,7 UV-I 321 W/m 14,0 C 19,2 C 17,7 km/h (3 Bft)
28.10.2022 14:42 20,6 C 23,9 C 65 % 1020,5 hPa 0,0 l/m 13,4 km/h (3 Bft) S-SO 156 0 min 1,5 UV-I 277 W/m 13,8 C 18,4 C 22,5 km/h (4 Bft)
28.10.2022 14:45 20,5 C 23,3 C 67 % 1020,6 hPa 0,0 l/m 11,5 km/h (2 Bft) S 175 0 min 1,5 UV-I 277 W/m 14,2 C 18,7 C 20,9 km/h (4 Bft)
28.10.2022 14:48 20,3 C 22,8 C 66 % 1020,5 hPa 0,0 l/m 14,1 km/h (3 Bft) S 183 0 min 1,4 UV-I 243 W/m 13,7 C 17,8 C 24,1 km/h (4 Bft)
28.10.2022 14:51 20,2 C 22,2 C 67 % 1020,6 hPa 0,0 l/m 12,4 km/h (3 Bft) S-SW 194 0 min 1,3 UV-I 225 W/m 13,9 C 18,1 C 20,9 km/h (4 Bft)
28.10.2022 14:54 20,3 C 22,8 C 66 % 1020,5 hPa 0,0 l/m 13,2 km/h (3 Bft) S-SO 157 0 min 1,4 UV-I 288 W/m 13,7 C 18,1 C 24,1 km/h (4 Bft)
28.10.2022 14:57 20,2 C 22,8 C 67 % 1020,5 hPa 0,0 l/m 15,2 km/h (3 Bft) S-SO 161 0 min 1,4 UV-I 258 W/m 13,9 C 17,4 C 22,5 km/h (4 Bft)
28.10.2022 15:00 20,2 C 22,2 C 67 % 1020,5 hPa 0,0 l/m 14,7 km/h (3 Bft) S-SW 196 0 min 1,3 UV-I 243 W/m 13,9 C 17,6 C 22,5 km/h (4 Bft)
28.10.2022 15:03 20,2 C 22,8 C 67 % 1020,6 hPa 0,0 l/m 13,0 km/h (3 Bft) SO 146 3 min 1,5 UV-I 314 W/m 13,9 C 18,0 C 20,9 km/h (4 Bft)
28.10.2022 15:06 20,3 C 22,8 C 66 % 1020,5 hPa 0,0 l/m 14,8 km/h (3 Bft) S 181 0 min 1,4 UV-I 258 W/m 13,7 C 17,7 C 27,4 km/h (4 Bft)
28.10.2022 15:09 20,2 C 21,7 C 66 % 1020,6 hPa 0,0 l/m 11,6 km/h (2 Bft) S 175 0 min 1,2 UV-I 195 W/m 13,6 C 18,4 C 22,5 km/h (4 Bft)
28.10.2022 15:12 20,1 C 20,6 C 66 % 1020,5 hPa 0,0 l/m 17,4 km/h (3 Bft) S 172 0 min 1,1 UV-I 158 W/m 13,5 C 16,8 C 29,0 km/h (5 Bft)
28.10.2022 15:15 19,9 C 20,6 C 67 % 1020,5 hPa 0,0 l/m 13,9 km/h (3 Bft) S 177 0 min 1,0 UV-I 159 W/m 13,6 C 17,4 C 20,9 km/h (4 Bft)
28.10.2022 15:18 19,9 C 21,1 C 67 % 1020,7 hPa 0,0 l/m 12,4 km/h (3 Bft) S-SO 163 0 min 1,1 UV-I 211 W/m 13,6 C 17,8 C 19,3 km/h (3 Bft)
28.10.2022 15:21 20,0 C 21,7 C 67 % 1020,8 hPa 0,0 l/m 13,3 km/h (3 Bft) S-SO 163 0 min 1,1 UV-I 207 W/m 13,7 C 17,7 C 17,7 km/h (3 Bft)
28.10.2022 15:24 20,0 C 21,1 C 67 % 1020,6 hPa 0,0 l/m 15,1 km/h (3 Bft) S-SW 192 0 min 1,1 UV-I 204 W/m 13,7 C 17,2 C 22,5 km/h (4 Bft)
28.10.2022 15:27 20,1 C 21,1 C 68 % 1020,5 hPa 0,0 l/m 12,0 km/h (2 Bft) S-SO 150 0 min 1,0 UV-I 191 W/m 14,0 C 18,1 C 19,3 km/h (3 Bft)
28.10.2022 15:30 20,0 C 21,1 C 68 % 1020,4 hPa 0,0 l/m 11,3 km/h (2 Bft) SO 130 0 min 1,0 UV-I 187 W/m 13,9 C 18,2 C 16,1 km/h (3 Bft)
28.10.2022 15:33 19,9 C 21,1 C 68 % 1020,5 hPa 0,0 l/m 12,1 km/h (2 Bft) S-SO 165 0 min 1,0 UV-I 191 W/m 13,8 C 17,9 C 20,9 km/h (4 Bft)
28.10.2022 15:36 19,8 C 20,6 C 68 % 1020,5 hPa 0,0 l/m 13,5 km/h (3 Bft) SO 132 0 min 1,0 UV-I 179 W/m 13,7 C 17,4 C 19,3 km/h (3 Bft)
28.10.2022 15:39 19,8 C 20,6 C 69 % 1020,5 hPa 0,0 l/m 10,2 km/h (2 Bft) S-SO 168 0 min 1,0 UV-I 178 W/m 13,9 C 18,4 C 19,3 km/h (3 Bft)
28.10.2022 15:42 19,8 C 20,6 C 69 % 1020,5 hPa 0,0 l/m 7,8 km/h (2 Bft) S-SO 150 0 min 1,0 UV-I 176 W/m 13,9 C 19,2 C 12,9 km/h (3 Bft)
28.10.2022 15:45 19,8 C 20,6 C 69 % 1020,5 hPa 0,0 l/m 7,2 km/h (2 Bft) S-SO 159 0 min 0,9 UV-I 178 W/m 13,9 C 19,5 C 11,3 km/h (2 Bft)
28.10.2022 15:48 19,9 C 21,1 C 69 % 1020,5 hPa 0,0 l/m 8,4 km/h (2 Bft) SO 130 0 min 0,9 UV-I 171 W/m 14,0 C 19,1 C 12,9 km/h (3 Bft)
28.10.2022 15:51 19,8 C 20,6 C 69 % 1020,5 hPa 0,0 l/m 8,6 km/h (2 Bft) S 170 0 min 0,9 UV-I 153 W/m 13,9 C 18,9 C 14,5 km/h (3 Bft)
28.10.2022 15:54 19,8 C 20,0 C 69 % 1020,4 hPa 0,0 l/m 8,9 km/h (2 Bft) S-SO 148 0 min 0,8 UV-I 148 W/m 13,9 C 18,8 C 14,5 km/h (3 Bft)
28.10.2022 15:57 19,7 C 20,0 C 69 % 1020,4 hPa 0,0 l/m 12,3 km/h (3 Bft) S 183 0 min 0,8 UV-I 136 W/m 13,8 C 17,6 C 20,9 km/h (4 Bft)
28.10.2022 16:00 19,7 C 19,4 C 68 % 1020,4 hPa 0,0 l/m 10,6 km/h (2 Bft) S-SO 168 0 min 0,7 UV-I 128 W/m 13,6 C 18,1 C 19,3 km/h (3 Bft)
28.10.2022 16:03 19,6 C 19,4 C 69 % 1020,5 hPa 0,0 l/m 8,9 km/h (2 Bft) S-SO 148 0 min 0,7 UV-I 121 W/m 13,8 C 18,6 C 17,7 km/h (3 Bft)
28.10.2022 16:07 19,5 C 19,4 C 69 % 1020,5 hPa 0,0 l/m 8,6 km/h (2 Bft) S 180 0 min 0,6 UV-I 115 W/m 13,7 C 18,6 C 17,7 km/h (3 Bft)
28.10.2022 16:09 19,4 C 19,4 C 69 % 1020,4 hPa 0,0 l/m 7,6 km/h (2 Bft) S-SW 197 0 min 0,6 UV-I 111 W/m 13,6 C 18,9 C 17,7 km/h (3 Bft)
28.10.2022 16:12 19,4 C 18,9 C 70 % 1020,4 hPa 0,0 l/m 9,3 km/h (2 Bft) S-SO 157 0 min 0,6 UV-I 108 W/m 13,8 C 18,2 C 16,1 km/h (3 Bft)
28.10.2022 16:15 19,3 C 18,9 C 70 % 1020,5 hPa 0,0 l/m 11,0 km/h (2 Bft) S-SO 159 0 min 0,5 UV-I 104 W/m 13,7 C 17,5 C 19,3 km/h (3 Bft)
28.10.2022 16:18 19,3 C 18,9 C 69 % 1020,7 hPa 0,0 l/m 14,3 km/h (3 Bft) S 169 0 min 0,5 UV-I 102 W/m 13,5 C 16,6 C 22,5 km/h (4 Bft)
28.10.2022 16:21 19,3 C 18,9 C 69 % 1020,6 hPa 0,0 l/m 13,0 km/h (3 Bft) S 188 0 min 0,5 UV-I 103 W/m 13,5 C 16,9 C 19,3 km/h (3 Bft)
28.10.2022 16:24 19,2 C 18,3 C 70 % 1020,7 hPa 0,0 l/m 10,4 km/h (2 Bft) S 171 0 min 0,5 UV-I 104 W/m 13,6 C 17,6 C 14,5 km/h (3 Bft)
28.10.2022 16:27 19,1 C 18,3 C 70 % 1020,8 hPa 0,0 l/m 12,8 km/h (3 Bft) S 180 0 min 0,5 UV-I 100 W/m 13,5 C 16,8 C 20,9 km/h (4 Bft)
28.10.2022 16:30 19,1 C 18,3 C 70 % 1020,9 hPa 0,0 l/m 12,6 km/h (3 Bft) S-SO 168 0 min 0,5 UV-I 98 W/m 13,5 C 16,8 C 17,7 km/h (3 Bft)
28.10.2022 16:33 19,0 C 18,3 C 71 % 1021,1 hPa 0,0 l/m 12,0 km/h (2 Bft) S-SW 198 0 min 0,5 UV-I 96 W/m 13,6 C 16,9 C 16,1 km/h (3 Bft)
28.10.2022 16:36 18,9 C 18,3 C 71 % 1021,2 hPa 0,0 l/m 12,9 km/h (3 Bft) S-SW 199 0 min 0,3 UV-I 93 W/m 13,5 C 16,5 C 19,3 km/h (3 Bft)
28.10.2022 16:39 18,8 C 18,3 C 71 % 1021,2 hPa 0,0 l/m 11,4 km/h (2 Bft) S-SW 197 0 min 0,0 UV-I 88 W/m 13,4 C 16,8 C 16,1 km/h (3 Bft)
28.10.2022 16:42 18,8 C 18,3 C 72 % 1021,3 hPa 0,0 l/m 11,2 km/h (2 Bft) S-SW 192 0 min 0,0 UV-I 83 W/m 13,6 C 16,9 C 16,1 km/h (3 Bft)
28.10.2022 16:45 18,7 C 17,8 C 72 % 1021,5 hPa 0,0 l/m 11,4 km/h (2 Bft) S-SW 196 0 min 0,0 UV-I 77 W/m 13,5 C 16,7 C 16,1 km/h (3 Bft)
28.10.2022 16:48 18,7 C 17,8 C 72 % 1021,5 hPa 0,0 l/m 12,3 km/h (3 Bft) S-SW 196 0 min 0,0 UV-I 72 W/m 13,5 C 16,4 C 17,7 km/h (3 Bft)
28.10.2022 16:51 18,7 C 17,8 C 72 % 1021,4 hPa 0,0 l/m 10,0 km/h (2 Bft) S-SW 206 0 min 0,0 UV-I 68 W/m 13,5 C 17,2 C 14,5 km/h (3 Bft)
28.10.2022 16:54 18,6 C 17,8 C 72 % 1021,4 hPa 0,0 l/m 10,9 km/h (2 Bft) S-SO 165 0 min 0,0 UV-I 63 W/m 13,4 C 16,8 C 16,1 km/h (3 Bft)
28.10.2022 16:57 18,6 C 17,8 C 72 % 1021,4 hPa 0,0 l/m 8,1 km/h (2 Bft) S 185 0 min 0,0 UV-I 60 W/m 13,4 C 17,8 C 11,3 km/h (2 Bft)
28.10.2022 17:00 18,6 C 17,8 C 72 % 1021,5 hPa 0,0 l/m 8,1 km/h (2 Bft) S-SO 168 0 min 0,0 UV-I 55 W/m 13,4 C 17,8 C 14,5 km/h (3 Bft)
28.10.2022 17:03 18,5 C 17,8 C 73 % 1021,5 hPa 0,0 l/m 8,0 km/h (2 Bft) S 175 0 min 0,0 UV-I 52 W/m 13,6 C 17,8 C 14,5 km/h (3 Bft)
28.10.2022 17:06 18,5 C 17,8 C 73 % 1021,4 hPa 0,0 l/m 9,8 km/h (2 Bft) S 179 0 min 0,0 UV-I 49 W/m 13,6 C 17,1 C 16,1 km/h (3 Bft)
28.10.2022 17:09 18,4 C 17,8 C 73 % 1021,3 hPa 0,0 l/m 8,4 km/h (2 Bft) S 173 0 min 0,0 UV-I 47 W/m 13,5 C 17,5 C 14,5 km/h (3 Bft)
28.10.2022 17:12 18,3 C 17,2 C 74 % 1021,3 hPa 0,0 l/m 7,9 km/h (2 Bft) S 169 0 min 0,0 UV-I 45 W/m 13,6 C 17,6 C 14,5 km/h (3 Bft)
28.10.2022 17:15 18,3 C 17,2 C 74 % 1021,4 hPa 0,0 l/m 9,9 km/h (2 Bft) S-SW 194 0 min 0,0 UV-I 44 W/m 13,6 C 16,8 C 14,5 km/h (3 Bft)
28.10.2022 17:18 18,3 C 17,2 C 74 % 1021,4 hPa 0,0 l/m 8,3 km/h (2 Bft) S 182 0 min 0,0 UV-I 44 W/m 13,6 C 17,4 C 12,9 km/h (3 Bft)
28.10.2022 17:21 18,3 C 17,2 C 74 % 1021,4 hPa 0,0 l/m 10,3 km/h (2 Bft) S-SW 202 0 min 0,0 UV-I 44 W/m 13,6 C 16,7 C 17,7 km/h (3 Bft)
28.10.2022 17:24 18,4 C 17,2 C 74 % 1021,4 hPa 0,0 l/m 9,5 km/h (2 Bft) S 173 0 min 0,0 UV-I 41 W/m 13,7 C 17,1 C 19,3 km/h (3 Bft)
28.10.2022 17:27 18,4 C 17,2 C 74 % 1021,4 hPa 0,0 l/m 12,1 km/h (2 Bft) S 189 0 min 0,0 UV-I 39 W/m 13,7 C 16,2 C 20,9 km/h (4 Bft)
28.10.2022 17:30 18,3 C 17,2 C 74 % 1021,4 hPa 0,0 l/m 9,1 km/h (2 Bft) S 186 0 min 0,0 UV-I 36 W/m 13,6 C 17,1 C 14,5 km/h (3 Bft)
28.10.2022 17:33 18,3 C 17,2 C 74 % 1021,4 hPa 0,0 l/m 9,8 km/h (2 Bft) S-SW 196 0 min 0,0 UV-I 33 W/m 13,6 C 16,8 C 14,5 km/h (3 Bft)
28.10.2022 17:36 18,2 C 17,2 C 74 % 1021,5 hPa 0,0 l/m 8,5 km/h (2 Bft) S 180 0 min 0,0 UV-I 31 W/m 13,5 C 17,2 C 12,9 km/h (3 Bft)
28.10.2022 17:39 18,0 C 16,7 C 75 % 1021,4 hPa 0,0 l/m 8,0 km/h (2 Bft) S 179 0 min 0,0 UV-I 28 W/m 13,5 C 17,3 C 11,3 km/h (2 Bft)
28.10.2022 17:42 17,9 C 16,7 C 75 % 1021,4 hPa 0,0 l/m 9,1 km/h (2 Bft) S 178 0 min 0,0 UV-I 26 W/m 13,4 C 16,7 C 11,3 km/h (2 Bft)
28.10.2022 17:45 17,9 C 16,7 C 75 % 1021,5 hPa 0,0 l/m 9,7 km/h (2 Bft) S 172 0 min 0,0 UV-I 23 W/m 13,4 C 16,4 C 17,7 km/h (3 Bft)
28.10.2022 17:48 17,9 C 16,7 C 75 % 1021,5 hPa 0,0 l/m 10,3 km/h (2 Bft) S 186 0 min 0,0 UV-I 20 W/m 13,4 C 16,2 C 14,5 km/h (3 Bft)
28.10.2022 17:51 17,9 C 16,7 C 75 % 1021,6 hPa 0,0 l/m 9,8 km/h (2 Bft) S 182 0 min 0,0 UV-I 16 W/m 13,4 C 16,4 C 16,1 km/h (3 Bft)
28.10.2022 17:54 17,9 C 16,7 C 75 % 1021,5 hPa 0,0 l/m 9,6 km/h (2 Bft) S 185 0 min 0,0 UV-I 14 W/m 13,4 C 16,5 C 14,5 km/h (3 Bft)
28.10.2022 17:57 17,8 C 16,1 C 75 % 1021,7 hPa 0,0 l/m 8,7 km/h (2 Bft) S-SW 207 0 min 0,0 UV-I 12 W/m 13,3 C 16,7 C 14,5 km/h (3 Bft)
28.10.2022 18:00 17,8 C 16,7 C 75 % 1021,6 hPa 0,0 l/m 9,5 km/h (2 Bft) S 187 0 min 0,0 UV-I 10 W/m 13,3 C 16,4 C 16,1 km/h (3 Bft)
28.10.2022 18:03 17,8 C 16,1 C 75 % 1021,6 hPa 0,0 l/m 10,1 km/h (2 Bft) S-SO 168 0 min 0,0 UV-I 8 W/m 13,3 C 16,2 C 19,3 km/h (3 Bft)
28.10.2022 18:06 17,8 C 16,7 C 75 % 1021,6 hPa 0,0 l/m 8,9 km/h (2 Bft) S 175 0 min 0,0 UV-I 6 W/m 13,3 C 16,7 C 16,1 km/h (3 Bft)
28.10.2022 18:09 17,8 C 16,1 C 75 % 1021,6 hPa 0,0 l/m 10,7 km/h (2 Bft) S-SO 164 0 min 0,0 UV-I 4 W/m 13,3 C 15,9 C 16,1 km/h (3 Bft)
28.10.2022 18:12 17,8 C 16,1 C 75 % 1021,7 hPa 0,0 l/m 7,7 km/h (2 Bft) S 186 0 min 0,0 UV-I 0 W/m 13,3 C 17,2 C 12,9 km/h (3 Bft)
28.10.2022 18:15 17,7 C 16,1 C 75 % 1021,8 hPa 0,0 l/m 7,9 km/h (2 Bft) S-SW 198 0 min 0,0 UV-I 0 W/m 13,2 C 17,0 C 12,9 km/h (3 Bft)
28.10.2022 18:18 17,7 C 16,1 C 75 % 1021,8 hPa 0,0 l/m 8,0 km/h (2 Bft) S 190 0 min 0,0 UV-I 0 W/m 13,2 C 16,9 C 11,3 km/h (2 Bft)
28.10.2022 18:21 17,7 C 15,6 C 75 % 1022,0 hPa 0,0 l/m 7,0 km/h (2 Bft) S 180 0 min 0,0 UV-I 0 W/m 13,2 C 17,4 C 9,7 km/h (2 Bft)
28.10.2022 18:24 17,5 C 15,6 C 75 % 1021,9 hPa 0,0 l/m 7,9 km/h (2 Bft) S 184 0 min 0,0 UV-I 0 W/m 13,0 C 16,8 C 12,9 km/h (3 Bft)
28.10.2022 18:27 17,4 C 15,6 C 75 % 1021,9 hPa 0,0 l/m 6,5 km/h (2 Bft) S-SW 192 0 min 0,0 UV-I 0 W/m 12,9 C 17,4 C 12,9 km/h (3 Bft)
28.10.2022 18:30 17,3 C 15,6 C 75 % 1021,9 hPa 0,0 l/m 6,5 km/h (2 Bft) S 180 0 min 0,0 UV-I 0 W/m 12,8 C 17,3 C 11,3 km/h (2 Bft)
28.10.2022 18:33 17,2 C 15,0 C 76 % 1021,9 hPa 0,0 l/m 6,3 km/h (2 Bft) S 189 0 min 0,0 UV-I 0 W/m 12,9 C 17,2 C 9,7 km/h (2 Bft)
28.10.2022 18:36 17,1 C 15,0 C 76 % 1021,9 hPa 0,0 l/m 5,6 km/h (1 Bft) S 178 0 min 0,0 UV-I 0 W/m 12,8 C 17,1 C 8,0 km/h (2 Bft)
28.10.2022 18:39 16,9 C 14,4 C 76 % 1022,0 hPa 0,0 l/m 5,8 km/h (2 Bft) S 178 0 min 0,0 UV-I 0 W/m 12,6 C 16,9 C 9,7 km/h (2 Bft)
28.10.2022 18:42 16,7 C 14,4 C 77 % 1022,0 hPa 0,0 l/m 6,0 km/h (2 Bft) S 184 0 min 0,0 UV-I 0 W/m 12,6 C 16,7 C 8,0 km/h (2 Bft)
28.10.2022 18:45 16,6 C 14,4 C 78 % 1022,0 hPa 0,0 l/m 7,1 km/h (2 Bft) S-SW 202 0 min 0,0 UV-I 0 W/m 12,7 C 16,2 C 12,9 km/h (3 Bft)
28.10.2022 18:48 16,5 C 14,4 C 78 % 1022,1 hPa 0,0 l/m 7,8 km/h (2 Bft) S-SW 208 0 min 0,0 UV-I 0 W/m 12,6 C 15,8 C 12,9 km/h (3 Bft)
28.10.2022 18:51 16,6 C 15,0 C 77 % 1022,1 hPa 0,0 l/m 9,1 km/h (2 Bft) S-SW 194 0 min 0,0 UV-I 0 W/m 12,5 C 15,3 C 12,9 km/h (3 Bft)
28.10.2022 18:54 16,6 C 15,0 C 77 % 1022,1 hPa 0,0 l/m 8,6 km/h (2 Bft) S 171 0 min 0,0 UV-I 0 W/m 12,5 C 15,5 C 11,3 km/h (2 Bft)
28.10.2022 18:57 16,4 C 14,4 C 78 % 1022,1 hPa 0,0 l/m 8,3 km/h (2 Bft) S 171 0 min 0,0 UV-I 0 W/m 12,6 C 15,4 C 12,9 km/h (3 Bft)
28.10.2022 19:00 16,3 C 14,4 C 78 % 1022,2 hPa 0,0 l/m 8,3 km/h (2 Bft) S 185 0 min 0,0 UV-I 0 W/m 12,5 C 15,3 C 14,5 km/h (3 Bft)
28.10.2022 19:03 16,3 C 14,4 C 78 % 1022,2 hPa 0,0 l/m 8,8 km/h (2 Bft) S 181 0 min 0,0 UV-I 0 W/m 12,5 C 15,1 C 12,9 km/h (3 Bft)
28.10.2022 19:06 16,3 C 14,4 C 78 % 1022,3 hPa 0,0 l/m 9,6 km/h (2 Bft) S-SW 206 0 min 0,0 UV-I 0 W/m 12,5 C 14,7 C 17,7 km/h (3 Bft)
28.10.2022 19:09 16,3 C 14,4 C 78 % 1022,3 hPa 0,0 l/m 9,3 km/h (2 Bft) S 186 0 min 0,0 UV-I 0 W/m 12,5 C 14,9 C 14,5 km/h (3 Bft)
28.10.2022 19:12 16,3 C 14,4 C 78 % 1022,3 hPa 0,0 l/m 9,7 km/h (2 Bft) S-SW 193 0 min 0,0 UV-I 0 W/m 12,5 C 14,7 C 14,5 km/h (3 Bft)
28.10.2022 19:15 16,3 C 14,4 C 77 % 1022,4 hPa 0,0 l/m 10,0 km/h (2 Bft) S-SW 198 0 min 0,0 UV-I 0 W/m 12,3 C 14,6 C 16,1 km/h (3 Bft)
28.10.2022 19:18 16,3 C 14,4 C 78 % 1022,4 hPa 0,0 l/m 8,8 km/h (2 Bft) S-SW 203 0 min 0,0 UV-I 0 W/m 12,5 C 15,1 C 11,3 km/h (2 Bft)
28.10.2022 19:21 16,3 C 14,4 C 78 % 1022,4 hPa 0,0 l/m 10,1 km/h (2 Bft) S-SW 193 0 min 0,0 UV-I 0 W/m 12,5 C 14,5 C 16,1 km/h (3 Bft)
28.10.2022 19:24 16,3 C 14,4 C 77 % 1022,3 hPa 0,0 l/m 8,5 km/h (2 Bft) S-SW 200 0 min 0,0 UV-I 0 W/m 12,3 C 15,2 C 12,9 km/h (3 Bft)
28.10.2022 19:27 16,4 C 14,4 C 77 % 1022,3 hPa 0,0 l/m 9,7 km/h (2 Bft) S 181 0 min 0,0 UV-I 0 W/m 12,4 C 14,8 C 14,5 km/h (3 Bft)
28.10.2022 19:30 16,4 C 15,0 C 77 % 1022,2 hPa 0,0 l/m 8,0 km/h (2 Bft) S 173 0 min 0,0 UV-I 0 W/m 12,4 C 15,6 C 12,9 km/h (3 Bft)
28.10.2022 19:33 16,3 C 14,4 C 77 % 1022,3 hPa 0,0 l/m 6,1 km/h (2 Bft) S-SW 194 0 min 0,0 UV-I 0 W/m 12,3 C 16,3 C 8,0 km/h (2 Bft)
28.10.2022 19:36 16,2 C 14,4 C 77 % 1022,3 hPa 0,0 l/m 5,8 km/h (2 Bft) S-SW 192 0 min 0,0 UV-I 0 W/m 12,2 C 16,2 C 9,7 km/h (2 Bft)
28.10.2022 19:39 16,2 C 13,9 C 78 % 1022,4 hPa 0,0 l/m 5,6 km/h (1 Bft) S-SW 194 0 min 0,0 UV-I 0 W/m 12,4 C 16,2 C 8,0 km/h (2 Bft)
28.10.2022 19:42 16,1 C 13,9 C 78 % 1022,4 hPa 0,0 l/m 5,1 km/h (1 Bft) S-SW 194 0 min 0,0 UV-I 0 W/m 12,3 C 16,1 C 8,0 km/h (2 Bft)
28.10.2022 19:45 15,9 C 13,3 C 78 % 1022,5 hPa 0,0 l/m 5,4 km/h (1 Bft) S-SW 192 0 min 0,0 UV-I 0 W/m 12,1 C 15,9 C 8,0 km/h (2 Bft)
28.10.2022 19:48 15,9 C 13,3 C 78 % 1022,6 hPa 0,0 l/m 5,0 km/h (1 Bft) SW 220 0 min 0,0 UV-I 0 W/m 12,1 C 15,9 C 6,4 km/h (2 Bft)
28.10.2022 19:51 15,9 C 13,3 C 79 % 1022,6 hPa 0,0 l/m 4,6 km/h (1 Bft) SW 221 0 min 0,0 UV-I 0 W/m 12,3 C 15,9 C 8,0 km/h (2 Bft)
28.10.2022 19:54 15,9 C 13,3 C 79 % 1022,6 hPa 0,0 l/m 4,1 km/h (1 Bft) SW 219 0 min 0,0 UV-I 0 W/m 12,3 C 15,9 C 4,8 km/h (1 Bft)
28.10.2022 19:57 15,8 C 13,3 C 79 % 1022,6 hPa 0,0 l/m 4,1 km/h (1 Bft) SW 219 0 min 0,0 UV-I 0 W/m 12,2 C 15,8 C 6,4 km/h (2 Bft)
28.10.2022 20:00 15,7 C 12,8 C 79 % 1022,6 hPa 0,0 l/m 3,3 km/h (1 Bft) SW 219 0 min 0,0 UV-I 0 W/m 12,1 C 15,7 C 4,8 km/h (1 Bft)
28.10.2022 20:03 15,5 C 12,8 C 79 % 1022,8 hPa 0,0 l/m 3,1 km/h (1 Bft) SW 219 0 min 0,0 UV-I 0 W/m 11,9 C 15,5 C 4,8 km/h (1 Bft)
28.10.2022 20:06 15,2 C 12,2 C 80 % 1022,6 hPa 0,0 l/m 1,9 km/h (1 Bft) SW 219 0 min 0,0 UV-I 0 W/m 11,8 C 15,2 C 3,2 km/h (1 Bft)
28.10.2022 20:09 15,0 C 12,2 C 81 % 1022,7 hPa 0,0 l/m 2,4 km/h (1 Bft) S-SW 197 0 min 0,0 UV-I 0 W/m 11,8 C 15,0 C 4,8 km/h (1 Bft)
28.10.2022 20:12 14,9 C 11,7 C 81 % 1022,8 hPa 0,0 l/m 3,9 km/h (1 Bft) S 184 0 min 0,0 UV-I 0 W/m 11,7 C 14,9 C 8,0 km/h (2 Bft)
28.10.2022 20:15 14,9 C 11,7 C 82 % 1022,8 hPa 0,0 l/m 5,5 km/h (1 Bft) S 181 0 min 0,0 UV-I 0 W/m 11,9 C 14,9 C 9,7 km/h (2 Bft)
28.10.2022 20:18 15,0 C 11,7 C 82 % 1022,8 hPa 0,0 l/m 4,3 km/h (1 Bft) S 180 0 min 0,0 UV-I 0 W/m 12,0 C 15,0 C 6,4 km/h (2 Bft)
28.10.2022 20:21 15,1 C 11,7 C 81 % 1022,7 hPa 0,0 l/m 4,7 km/h (1 Bft) S 186 0 min 0,0 UV-I 0 W/m 11,9 C 15,1 C 8,0 km/h (2 Bft)
28.10.2022 20:24 15,3 C 12,2 C 80 % 1022,7 hPa 0,0 l/m 4,2 km/h (1 Bft) S 177 0 min 0,0 UV-I 0 W/m 11,9 C 15,3 C 8,0 km/h (2 Bft)
28.10.2022 20:27 15,3 C 12,2 C 80 % 1022,7 hPa 0,0 l/m 3,3 km/h (1 Bft) S 177 0 min 0,0 UV-I 0 W/m 11,9 C 15,3 C 4,8 km/h (1 Bft)
28.10.2022 20:30 15,2 C 12,2 C 81 % 1022,8 hPa 0,0 l/m 4,5 km/h (1 Bft) S 172 0 min 0,0 UV-I 0 W/m 12,0 C 15,2 C 8,0 km/h (2 Bft)
28.10.2022 20:33 15,2 C 12,2 C 80 % 1022,8 hPa 0,0 l/m 3,2 km/h (1 Bft) S 171 0 min 0,0 UV-I 0 W/m 11,8 C 15,2 C 8,0 km/h (2 Bft)
28.10.2022 20:36 15,1 C 11,7 C 81 % 1022,7 hPa 0,0 l/m 4,4 km/h (1 Bft) S 173 0 min 0,0 UV-I 0 W/m 11,9 C 15,1 C 9,7 km/h (2 Bft)
28.10.2022 20:39 15,0 C 12,2 C 81 % 1022,7 hPa 0,0 l/m 3,2 km/h (1 Bft) S 180 0 min 0,0 UV-I 0 W/m 11,8 C 15,0 C 6,4 km/h (2 Bft)
28.10.2022 20:42 15,1 C 11,7 C 81 % 1022,8 hPa 0,0 l/m 4,9 km/h (1 Bft) S 181 0 min 0,0 UV-I 0 W/m 11,9 C 15,1 C 8,0 km/h (2 Bft)
28.10.2022 20:45 15,1 C 12,2 C 81 % 1022,8 hPa 0,0 l/m 5,7 km/h (1 Bft) S 177 0 min 0,0 UV-I 0 W/m 11,9 C 15,1 C 9,7 km/h (2 Bft)
28.10.2022 20:48 15,2 C 12,2 C 81 % 1022,7 hPa 0,0 l/m 6,2 km/h (2 Bft) S-SO 165 0 min 0,0 UV-I 0 W/m 12,0 C 15,2 C 14,5 km/h (3 Bft)
28.10.2022 20:51 15,2 C 12,2 C 81 % 1022,7 hPa 0,0 l/m 6,9 km/h (2 Bft) S 171 0 min 0,0 UV-I 0 W/m 12,0 C 14,9 C 9,7 km/h (2 Bft)
28.10.2022 20:54 15,3 C 12,8 C 80 % 1022,7 hPa 0,0 l/m 7,7 km/h (2 Bft) S 171 0 min 0,0 UV-I 0 W/m 11,9 C 14,6 C 12,9 km/h (3 Bft)
28.10.2022 20:57 15,4 C 12,8 C 80 % 1022,7 hPa 0,0 l/m 7,2 km/h (2 Bft) S-SO 167 0 min 0,0 UV-I 0 W/m 12,0 C 15,0 C 12,9 km/h (3 Bft)
28.10.2022 21:00 15,4 C 12,8 C 80 % 1022,7 hPa 0,0 l/m 7,8 km/h (2 Bft) S 170 0 min 0,0 UV-I 0 W/m 12,0 C 14,6 C 11,3 km/h (2 Bft)
28.10.2022 21:03 15,5 C 13,3 C 80 % 1022,8 hPa 0,0 l/m 6,1 km/h (2 Bft) S 184 0 min 0,0 UV-I 0 W/m 12,1 C 15,5 C 9,7 km/h (2 Bft)
28.10.2022 21:06 15,3 C 12,8 C 80 % 1022,9 hPa 0,0 l/m 6,2 km/h (2 Bft) S 188 0 min 0,0 UV-I 0 W/m 11,9 C 15,3 C 11,3 km/h (2 Bft)
28.10.2022 21:09 15,3 C 12,8 C 80 % 1022,8 hPa 0,0 l/m 5,4 km/h (1 Bft) S 182 0 min 0,0 UV-I 0 W/m 11,9 C 15,3 C 11,3 km/h (2 Bft)
28.10.2022 21:12 15,3 C 12,8 C 80 % 1022,8 hPa 0,0 l/m 4,8 km/h (1 Bft) S-SO 162 0 min 0,0 UV-I 0 W/m 11,9 C 15,3 C 11,3 km/h (2 Bft)
28.10.2022 21:15 15,2 C 13,3 C 81 % 1022,9 hPa 0,0 l/m 5,8 km/h (2 Bft) S-SW 199 0 min 0,0 UV-I 0 W/m 12,0 C 15,2 C 8,0 km/h (2 Bft)
28.10.2022 21:18 15,1 C 12,8 C 81 % 1022,9 hPa 0,0 l/m 4,5 km/h (1 Bft) S-SW 205 0 min 0,0 UV-I 0 W/m 11,9 C 15,1 C 6,4 km/h (2 Bft)
28.10.2022 21:21 14,9 C 12,2 C 81 % 1022,9 hPa 0,0 l/m 4,5 km/h (1 Bft) S 173 0 min 0,0 UV-I 0 W/m 11,7 C 14,9 C 9,7 km/h (2 Bft)
28.10.2022 21:24 14,9 C 12,2 C 81 % 1022,9 hPa 0,0 l/m 4,7 km/h (1 Bft) S 179 0 min 0,0 UV-I 0 W/m 11,7 C 14,9 C 8,0 km/h (2 Bft)
28.10.2022 21:27 14,9 C 12,2 C 81 % 1023,0 hPa 0,0 l/m 3,8 km/h (1 Bft) S 182 0 min 0,0 UV-I 0 W/m 11,7 C 14,9 C 6,4 km/h (2 Bft)
28.10.2022 21:30 14,8 C 12,2 C 81 % 1023,0 hPa 0,0 l/m 2,9 km/h (1 Bft) S 180 0 min 0,0 UV-I 0 W/m 11,6 C 14,8 C 6,4 km/h (2 Bft)
28.10.2022 21:33 14,6 C 11,7 C 82 % 1023,2 hPa 0,0 l/m 4,0 km/h (1 Bft) S 171 0 min 0,0 UV-I 0 W/m 11,6 C 14,6 C 6,4 km/h (2 Bft)
28.10.2022 21:36 14,6 C 11,7 C 82 % 1023,0 hPa 0,0 l/m 4,0 km/h (1 Bft) S 175 0 min 0,0 UV-I 0 W/m 11,6 C 14,6 C 8,0 km/h (2 Bft)
28.10.2022 21:39 14,6 C 11,7 C 82 % 1023,1 hPa 0,0 l/m 3,2 km/h (1 Bft) S 175 0 min 0,0 UV-I 0 W/m 11,6 C 14,6 C 4,8 km/h (1 Bft)
28.10.2022 21:42 14,5 C 11,7 C 83 % 1023,1 hPa 0,0 l/m 3,8 km/h (1 Bft) S-SO 167 0 min 0,0 UV-I 0 W/m 11,6 C 14,5 C 9,7 km/h (2 Bft)
28.10.2022 21:45 14,5 C 11,7 C 83 % 1023,1 hPa 0,0 l/m 4,7 km/h (1 Bft) S 180 0 min 0,0 UV-I 0 W/m 11,6 C 14,5 C 9,7 km/h (2 Bft)
28.10.2022 21:48 14,7 C 12,2 C 83 % 1023,1 hPa 0,0 l/m 6,4 km/h (2 Bft) S 178 0 min 0,0 UV-I 0 W/m 11,8 C 14,7 C 12,9 km/h (3 Bft)
28.10.2022 21:51 14,9 C 12,8 C 82 % 1023,1 hPa 0,0 l/m 4,9 km/h (1 Bft) S 170 0 min 0,0 UV-I 0 W/m 11,9 C 14,9 C 9,7 km/h (2 Bft)
28.10.2022 21:54 14,9 C 12,8 C 81 % 1023,1 hPa 0,0 l/m 3,6 km/h (1 Bft) S 183 0 min 0,0 UV-I 0 W/m 11,7 C 14,9 C 8,0 km/h (2 Bft)
28.10.2022 21:57 14,8 C 12,8 C 82 % 1023,2 hPa 0,0 l/m 6,7 km/h (2 Bft) S-SO 149 0 min 0,0 UV-I 0 W/m 11,8 C 14,6 C 11,3 km/h (2 Bft)
28.10.2022 22:00 14,8 C 12,8 C 82 % 1023,2 hPa 0,0 l/m 7,4 km/h (2 Bft) S 175 0 min 0,0 UV-I 0 W/m 11,8 C 14,2 C 14,5 km/h (3 Bft)
28.10.2022 22:03 15,0 C 12,8 C 82 % 1023,2 hPa 0,0 l/m 7,8 km/h (2 Bft) S-SW 196 0 min 0,0 UV-I 0 W/m 12,0 C 14,2 C 12,9 km/h (3 Bft)
28.10.2022 22:06 15,2 C 13,3 C 82 % 1023,2 hPa 0,0 l/m 7,4 km/h (2 Bft) S 175 0 min 0,0 UV-I 0 W/m 12,1 C 14,6 C 11,3 km/h (2 Bft)
28.10.2022 22:09 15,3 C 13,3 C 81 % 1023,4 hPa 0,0 l/m 6,6 km/h (2 Bft) S-SW 198 0 min 0,0 UV-I 0 W/m 12,1 C 15,2 C 9,7 km/h (2 Bft)
28.10.2022 22:12 15,3 C 13,3 C 81 % 1023,5 hPa 0,0 l/m 5,9 km/h (2 Bft) SW 217 0 min 0,0 UV-I 0 W/m 12,1 C 15,3 C 8,0 km/h (2 Bft)
28.10.2022 22:15 15,2 C 13,3 C 81 % 1023,5 hPa 0,0 l/m 5,6 km/h (1 Bft) S-SW 208 0 min 0,0 UV-I 0 W/m 12,0 C 15,2 C 8,0 km/h (2 Bft)
28.10.2022 22:18 15,0 C 12,8 C 81 % 1023,4 hPa 0,0 l/m 3,0 km/h (1 Bft) S-SW 207 0 min 0,0 UV-I 0 W/m 11,8 C 15,0 C 6,4 km/h (2 Bft)
28.10.2022 22:21 14,7 C 12,2 C 82 % 1023,5 hPa 0,0 l/m 1,6 km/h (1 Bft) S-SW 208 0 min 0,0 UV-I 0 W/m 11,7 C 14,7 C 3,2 km/h (1 Bft)
28.10.2022 22:24 14,5 C 12,2 C 83 % 1023,6 hPa 0,0 l/m 3,5 km/h (1 Bft) S-SW 209 0 min 0,0 UV-I 0 W/m 11,6 C 14,5 C 6,4 km/h (2 Bft)
28.10.2022 22:27 14,6 C 12,2 C 83 % 1023,6 hPa 0,0 l/m 3,4 km/h (1 Bft) S-SW 213 0 min 0,0 UV-I 0 W/m 11,7 C 14,6 C 6,4 km/h (2 Bft)
28.10.2022 22:30 14,4 C 11,7 C 83 % 1023,6 hPa 0,0 l/m 1,5 km/h (1 Bft) S-SW 209 0 min 0,0 UV-I 0 W/m 11,5 C 14,4 C 4,8 km/h (1 Bft)
28.10.2022 22:33 13,8 C 11,1 C 83 % 1023,7 hPa 0,0 l/m 2,1 km/h (1 Bft) S-SW 209 0 min 0,0 UV-I 0 W/m 11,0 C 13,8 C 3,2 km/h (1 Bft)
28.10.2022 22:36 13,2 C 11,1 C 84 % 1023,6 hPa 0,0 l/m 1,2 km/h (1 Bft) S-SW 209 0 min 0,0 UV-I 0 W/m 10,6 C 13,2 C 3,2 km/h (1 Bft)
28.10.2022 22:39 13,1 C 10,6 C 86 % 1023,7 hPa 0,0 l/m 0,9 km/h (0 Bft) S-SW 209 0 min 0,0 UV-I 0 W/m 10,8 C 13,1 C 1,6 km/h (1 Bft)
28.10.2022 22:42 13,0 C 10,6 C 87 % 1023,8 hPa 0,0 l/m 1,2 km/h (1 Bft) S-SW 209 0 min 0,0 UV-I 0 W/m 10,9 C 13,0 C 4,8 km/h (1 Bft)
28.10.2022 22:45 13,2 C 10,6 C 87 % 1023,7 hPa 0,0 l/m 0,7 km/h (0 Bft) S-SW 209 0 min 0,0 UV-I 0 W/m 11,1 C 13,2 C 3,2 km/h (1 Bft)
28.10.2022 22:48 13,4 C 11,1 C 87 % 1023,7 hPa 0,0 l/m 3,0 km/h (1 Bft) S-SW 211 0 min 0,0 UV-I 0 W/m 11,3 C 13,4 C 6,4 km/h (2 Bft)
28.10.2022 22:51 13,8 C 11,1 C 86 % 1023,8 hPa 0,0 l/m 4,4 km/h (1 Bft) S-SW 200 0 min 0,0 UV-I 0 W/m 11,5 C 13,8 C 6,4 km/h (2 Bft)
28.10.2022 22:54 13,9 C 11,1 C 86 % 1023,8 hPa 0,0 l/m 4,3 km/h (1 Bft) SW 221 0 min 0,0 UV-I 0 W/m 11,6 C 13,9 C 8,0 km/h (2 Bft)
28.10.2022 22:57 13,9 C 11,1 C 85 % 1023,8 hPa 0,0 l/m 2,9 km/h (1 Bft) SW 220 0 min 0,0 UV-I 0 W/m 11,4 C 13,9 C 6,4 km/h (2 Bft)
28.10.2022 23:00 13,6 C 11,1 C 85 % 1023,8 hPa 0,0 l/m 1,5 km/h (1 Bft) SW 220 0 min 0,0 UV-I 0 W/m 11,1 C 13,6 C 3,2 km/h (1 Bft)
28.10.2022 23:03 13,1 C 10,6 C 85 % 1023,8 hPa 0,0 l/m 0,0 km/h (0 Bft) SW 220 0 min 0,0 UV-I 0 W/m 10,6 C 13,1 C 1,6 km/h (1 Bft)
28.10.2022 23:06 12,9 C 10,6 C 86 % 1023,8 hPa 0,0 l/m 0,3 km/h (0 Bft) SW 220 0 min 0,0 UV-I 0 W/m 10,6 C 12,9 C 1,6 km/h (1 Bft)
28.10.2022 23:09 12,9 C 10,6 C 87 % 1023,7 hPa 0,0 l/m 0,1 km/h (0 Bft) SW 220 0 min 0,0 UV-I 0 W/m 10,8 C 12,9 C 1,6 km/h (1 Bft)
28.10.2022 23:12 12,8 C 10,6 C 87 % 1023,7 hPa 0,0 l/m 0,2 km/h (0 Bft) SW 220 0 min 0,0 UV-I 0 W/m 10,7 C 12,8 C 1,6 km/h (1 Bft)
28.10.2022 23:15 12,7 C 10,0 C 88 % 1023,7 hPa 0,0 l/m 0,9 km/h (0 Bft) S-SO 157 0 min 0,0 UV-I 0 W/m 10,8 C 12,7 C 3,2 km/h (1 Bft)
28.10.2022 23:18 12,7 C 10,0 C 88 % 1023,6 hPa 0,0 l/m 0,8 km/h (0 Bft) S-SO 157 0 min 0,0 UV-I 0 W/m 10,8 C 12,7 C 3,2 km/h (1 Bft)
28.10.2022 23:21 12,7 C 10,0 C 88 % 1023,7 hPa 0,0 l/m 2,5 km/h (1 Bft) S-SO 157 0 min 0,0 UV-I 0 W/m 10,8 C 12,7 C 3,2 km/h (1 Bft)
28.10.2022 23:24 12,5 C 10,0 C 88 % 1023,7 hPa 0,0 l/m 2,1 km/h (1 Bft) S-SO 157 0 min 0,0 UV-I 0 W/m 10,6 C 12,5 C 3,2 km/h (1 Bft)
28.10.2022 23:27 12,4 C 10,0 C 88 % 1023,7 hPa 0,0 l/m 2,9 km/h (1 Bft) S-SO 157 0 min 0,0 UV-I 0 W/m 10,5 C 12,4 C 3,2 km/h (1 Bft)
28.10.2022 23:30 12,5 C 10,0 C 89 % 1023,6 hPa 0,0 l/m 2,6 km/h (1 Bft) S-SO 157 0 min 0,0 UV-I 0 W/m 10,7 C 12,5 C 3,2 km/h (1 Bft)
28.10.2022 23:33 12,6 C 10,6 C 89 % 1023,7 hPa 0,0 l/m 2,2 km/h (1 Bft) S-SO 157 0 min 0,0 UV-I 0 W/m 10,8 C 12,6 C 3,2 km/h (1 Bft)
28.10.2022 23:36 12,7 C 10,0 C 89 % 1023,6 hPa 0,0 l/m 2,1 km/h (1 Bft) S-SO 157 0 min 0,0 UV-I 0 W/m 10,9 C 12,7 C 3,2 km/h (1 Bft)
28.10.2022 23:39 12,7 C 10,0 C 89 % 1023,8 hPa 0,0 l/m 1,6 km/h (1 Bft) S-SO 157 0 min 0,0 UV-I 0 W/m 10,9 C 12,7 C 3,2 km/h (1 Bft)
28.10.2022 23:42 12,6 C 10,0 C 89 % 1023,8 hPa 0,0 l/m 0,0 km/h (0 Bft) S-SO 157 0 min 0,0 UV-I 0 W/m 10,8 C 12,6 C 0,0 km/h (0 Bft)
28.10.2022 23:45 12,3 C 9,4 C 88 % 1023,8 hPa 0,0 l/m 0,0 km/h (0 Bft) S-SO 157 0 min 0,0 UV-I 0 W/m 10,4 C 12,3 C 0,0 km/h (0 Bft)
28.10.2022 23:48 12,1 C 10,0 C 89 % 1023,8 hPa 0,0 l/m 0,0 km/h (0 Bft) S-SO 157 0 min 0,0 UV-I 0 W/m 10,3 C 12,1 C 1,6 km/h (1 Bft)
28.10.2022 23:51 12,0 C 9,4 C 89 % 1023,7 hPa 0,0 l/m 0,1 km/h (0 Bft) S-SO 157 0 min 0,0 UV-I 0 W/m 10,2 C 12,0 C 1,6 km/h (1 Bft)
28.10.2022 23:54 11,9 C 9,4 C 89 % 1023,6 hPa 0,0 l/m 0,5 km/h (0 Bft) S-SO 157 0 min 0,0 UV-I 0 W/m 10,1 C 11,9 C 1,6 km/h (1 Bft)
28.10.2022 23:57 12,0 C 9,4 C 90 % 1023,7 hPa 0,0 l/m 0,3 km/h (0 Bft) S-SO 157 0 min 0,0 UV-I 0 W/m 10,4 C 12,0 C 1,6 km/h (1 Bft)
_ Min-Zeit 23:54 23:45 13:36 15:30 - 23:03 - - - - - 23:54 07:03 23:42
Minimum _ 11,9 C 9,4 C 62 % 1020,4 hPa - 0,0 km/h (0 Bft) - - - - - 10,1 C 11,5 C 0,0 km/h (0 Bft)
_ Max-Zeit 13:54 12:57 23:57 22:42 00:00 13:57 - - 11:12 13:24 12:57 13:03 13:21 02:12
Maximum _ 21,3 C 26,7 C 90 % 1023,8 hPa 0,0 l/m 18,0 km/h
S (3 Bft)
- - 3 min 2,2 UV-I 426 W/m 14,3 C 20,2 C 32,2 km/h
S (5 Bft)
Durchschnitt _ 16,4 C 16,0 C 79 % 1021,9 hPa #0,0 l/m 8,4 km/h (2 Bft) S-SO - #2:33 h 1,3 UV-I 192 W/m 12,8 C 15,3 C 14,0 km/h (3 Bft)